| time (UTC) | temp F | wind direction | speed MPH | gust MPH | rain 1hr in | rain 24hr in | rain mn in | humidity % | barometer mb |
| 20260902193506 | 74 | 251 | 7.0 | 16.0 | 0.00 | 0.00 | 0.00 | 10 | 1012.6 |
| 20260902193406 | 74 | 261 | 10.0 | 16.0 | 0.00 | 0.00 | 0.00 | 10 | 1012.7 |
| 20260902193306 | 74 | 269 | 9.0 | 16.0 | 0.00 | 0.00 | 0.00 | 10 | 1012.6 |
| 20260902193206 | 74 | 288 | 11.0 | 16.0 | 0.00 | 0.00 | 0.00 | 10 | 1012.6 |
| 20260902193106 | 74 | 282 | 4.0 | 16.0 | 0.00 | 0.00 | 0.00 | 10 | 1012.6 |
| 20260902193006 | 73 | 282 | 6.0 | 16.0 | 0.00 | 0.00 | 0.00 | 10 | 1012.6 |
| 20260902192906 | 74 | 277 | 9.0 | 16.0 | 0.00 | 0.00 | 0.00 | 10 | 1012.6 |
| 20260902192806 | 73 | 294 | 8.0 | 16.0 | 0.00 | 0.00 | 0.00 | 10 | 1012.5 |
| 20260902192606 | 73 | 311 | 4.0 | 10.0 | 0.00 | 0.00 | 0.00 | 10 | 1012.5 |
| 20260902192506 | 72 | 315 | 3.0 | 5.0 | 0.00 | 0.00 | 0.00 | 13 | 1012.6 |
| 20260902192406 | 72 | 314 | 3.0 | 7.0 | 0.00 | 0.00 | 0.00 | 13 | 1012.6 |
| 20260902192307 | 72 | 314 | 3.0 | 8.0 | 0.00 | 0.00 | 0.00 | 13 | 1012.6 |
| 20260902192206 | 72 | 284 | 3.0 | 17.0 | 0.00 | 0.00 | 0.00 | 13 | 1012.6 |
| 20260902191506 | 72 | 234 | 3.0 | 17.0 | 0.00 | 0.00 | 0.00 | 13 | 1012.8 |
| 20260902191405 | 72 | 239 | 4.0 | 17.0 | 0.00 | 0.00 | 0.00 | 12 | 1012.7 |
| 20260902191306 | 72 | 254 | 5.0 | 17.0 | 0.00 | 0.00 | 0.00 | 12 | 1012.8 |
| 20260902191206 | 72 | 265 | 10.0 | 17.0 | 0.00 | 0.00 | 0.00 | 12 | 1012.8 |
| 20260902191105 | 72 | 265 | 8.0 | 17.0 | 0.00 | 0.00 | 0.00 | 12 | 1012.8 |
| 20260902191006 | 72 | 263 | 4.0 | 17.0 | 0.00 | 0.00 | 0.00 | 12 | 1012.8 |
| 20260902190906 | 72 | 273 | 11.0 | 17.0 | 0.00 | 0.00 | 0.00 | 11 | 1012.8 |
| 20260902190806 | 72 | 280 | 9.0 | 17.0 | 0.00 | 0.00 | 0.00 | 11 | 1012.9 |
| 20260902190706 | 73 | 277 | 11.0 | 17.0 | 0.00 | 0.00 | 0.00 | 11 | 1013.0 |
| 20260902190606 | 73 | 259 | 6.0 | 17.0 | 0.00 | 0.00 | 0.00 | 11 | 1013.1 |
| 20260902190507 | 73 | 265 | 2.0 | 17.0 | 0.00 | 0.00 | 0.00 | 12 | 1013.0 |
| 20260902190406 | 73 | 267 | 10.0 | 17.0 | 0.00 | 0.00 | 0.00 | 11 | 1012.9 |
| 20260902190306 | 72 | 260 | 4.0 | 17.0 | 0.00 | 0.00 | 0.00 | 11 | 1013.0 |
| 20260902190205 | 72 | 252 | 6.0 | 17.0 | 0.00 | 0.00 | 0.00 | 11 | 1013.1 |
| 20260902190106 | 72 | 252 | 5.0 | 17.0 | 0.00 | 0.00 | 0.00 | 11 | 1013.0 |
| 20260902190006 | 72 | 245 | 8.0 | 17.0 | 0.00 | 0.00 | 0.00 | 11 | 1013.0 |
| 20260902185906 | 72 | 243 | 4.0 | 17.0 | 0.00 | 0.00 | 0.00 | 13 | 1013.1 |
| 20260902185805 | 72 | 244 | 2.0 | 17.0 | 0.00 | 0.00 | 0.00 | 13 | 1013.1 |
| 20260902185706 | 72 | 248 | 7.0 | 17.0 | 0.00 | 0.00 | 0.00 | 13 | 1013.1 |
| 20260902185606 | 71 | 252 | 4.0 | 17.0 | 0.00 | 0.00 | 0.00 | 13 | 1013.1 |
| 20260902185506 | 71 | 252 | 7.0 | 17.0 | 0.00 | 0.00 | 0.00 | 14 | 1013.1 |
| 20260902185405 | 71 | 254 | 8.0 | 17.0 | 0.00 | 0.00 | 0.00 | 14 | 1013.0 |
| 20260902185208 | 70 | 262 | 8.0 | 17.0 | 0.00 | 0.00 | 0.00 | 14 | 1013.1 |
| 20260902185106 | 70 | 268 | 9.0 | 17.0 | 0.00 | 0.00 | 0.00 | 15 | 1013.0 |
| 20260902185005 | 70 | 267 | 8.0 | 17.0 | 0.00 | 0.00 | 0.00 | 15 | 1012.9 |
| 20260902184906 | 70 | 270 | 7.0 | 17.0 | 0.00 | 0.00 | 0.00 | 15 | 1012.9 |
| 20260902184806 | 69 | 266 | 4.0 | 17.0 | 0.00 | 0.00 | 0.00 | 14 | 1013.1 |
| 20260902184706 | 69 | 261 | 6.0 | 17.0 | 0.00 | 0.00 | 0.00 | 14 | 1013.1 |
| 20260902184605 | 69 | 256 | 11.0 | 17.0 | 0.00 | 0.00 | 0.00 | 14 | 1013.1 |
| 20260902184506 | 69 | 253 | 9.0 | 17.0 | 0.00 | 0.00 | 0.00 | 14 | 1013.2 |
| 20260902184406 | 69 | 242 | 5.0 | 16.0 | 0.00 | 0.00 | 0.00 | 15 | 1013.2 |
| 20260902184306 | 69 | 236 | 8.0 | 16.0 | 0.00 | 0.00 | 0.00 | 15 | 1013.2 |
| 20260902184206 | 69 | 233 | 6.0 | 16.0 | 0.00 | 0.00 | 0.00 | 15 | 1013.1 |
| 20260902183205 | 69 | 237 | 8.0 | 15.0 | 0.00 | 0.00 | 0.00 | 16 | 1013.4 |
| 20260902183106 | 69 | 248 | 7.0 | 15.0 | 0.00 | 0.00 | 0.00 | 16 | 1013.4 |
| 20260902183006 | 69 | 247 | 7.0 | 15.0 | 0.00 | 0.00 | 0.00 | 16 | 1013.3 |
| 20260902182905 | 69 | 249 | 7.0 | 15.0 | 0.00 | 0.00 | 0.00 | 16 | 1013.3 |
| 20260902182805 | 69 | 254 | 2.0 | 19.0 | 0.00 | 0.00 | 0.00 | 16 | 1013.4 |
| 20260902182706 | 69 | 250 | 5.0 | 19.0 | 0.00 | 0.00 | 0.00 | 16 | 1013.4 |
| 20260902182606 | 68 | 241 | 4.0 | 19.0 | 0.00 | 0.00 | 0.00 | 17 | 1013.5 |
| 20260902182406 | 68 | 235 | 6.0 | 19.0 | 0.00 | 0.00 | 0.00 | 17 | 1013.4 |
| 20260902182306 | 68 | 234 | 10.0 | 19.0 | 0.00 | 0.00 | 0.00 | 17 | 1013.3 |
| 20260902182206 | 68 | 232 | 9.0 | 19.0 | 0.00 | 0.00 | 0.00 | 17 | 1013.4 |
| 20260902182105 | 68 | 227 | 9.0 | 19.0 | 0.00 | 0.00 | 0.00 | 17 | 1013.4 |
| 20260902182006 | 67 | 232 | 7.0 | 19.0 | 0.00 | 0.00 | 0.00 | 17 | 1013.4 |
| 20260902181806 | 67 | 229 | 11.0 | 19.0 | 0.00 | 0.00 | 0.00 | 18 | 1013.4 |
| 20260902181705 | 67 | 230 | 11.0 | 19.0 | 0.00 | 0.00 | 0.00 | 18 | 1013.3 |
| 20260902181606 | 67 | 234 | 11.0 | 19.0 | 0.00 | 0.00 | 0.00 | 18 | 1013.4 |
| 20260902181506 | 67 | 235 | 11.0 | 19.0 | 0.00 | 0.00 | 0.00 | 18 | 1013.5 |
| 20260902181406 | 67 | 240 | 11.0 | 19.0 | 0.00 | 0.00 | 0.00 | 18 | 1013.5 |
| 20260902181305 | 67 | 240 | 8.0 | 19.0 | 0.00 | 0.00 | 0.00 | 18 | 1013.4 |
| 20260902181206 | 66 | 244 | 8.0 | 19.0 | 0.00 | 0.00 | 0.00 | 18 | 1013.5 |
| 20260902181106 | 66 | 245 | 11.0 | 19.0 | 0.00 | 0.00 | 0.00 | 18 | 1013.5 |
| 20260902181005 | 66 | 239 | 10.0 | 19.0 | 0.00 | 0.00 | 0.00 | 18 | 1013.4 |
| 20260902180505 | 66 | 229 | 9.0 | 17.0 | 0.00 | 0.00 | 0.00 | 19 | 1013.4 |
| 20260902180405 | 66 | 225 | 9.0 | 17.0 | 0.00 | 0.00 | 0.00 | 19 | 1013.4 |
| 20260902180306 | 66 | 225 | 4.0 | 17.0 | 0.00 | 0.00 | 0.00 | 19 | 1013.4 |
| 20260902180206 | 66 | 218 | 8.0 | 17.0 | 0.00 | 0.00 | 0.00 | 19 | 1013.5 |
| 20260902180105 | 66 | 213 | 8.0 | 17.0 | 0.00 | 0.00 | 0.00 | 19 | 1013.6 |
| 20260902180007 | 65 | 213 | 8.0 | 17.0 | 0.00 | 0.00 | 0.00 | 19 | 1013.6 |
| 20260902175906 | 65 | 213 | 10.0 | 17.0 | 0.00 | 0.00 | 0.00 | 19 | 1013.6 |
| 20260902175806 | 65 | 217 | 11.0 | 17.0 | 0.00 | 0.00 | 0.00 | 19 | 1013.6 |
| 20260902175706 | 65 | 216 | 11.0 | 15.0 | 0.00 | 0.00 | 0.00 | 19 | 1013.5 |
| 20260902175606 | 65 | 215 | 5.0 | 15.0 | 0.00 | 0.00 | 0.00 | 19 | 1013.6 |
| 20260902175506 | 65 | 216 | 7.0 | 15.0 | 0.00 | 0.00 | 0.00 | 19 | 1013.6 |
| 20260902175406 | 65 | 216 | 6.0 | 15.0 | 0.00 | 0.00 | 0.00 | 18 | 1013.5 |
| 20260902175307 | 65 | 216 | 8.0 | 15.0 | 0.00 | 0.00 | 0.00 | 18 | 1013.7 |
| 20260902175206 | 65 | 220 | 8.0 | 15.0 | 0.00 | 0.00 | 0.00 | 18 | 1013.5 |
| 20260902175106 | 65 | 224 | 8.0 | 15.0 | 0.00 | 0.00 | 0.00 | 19 | 1013.6 |
| 20260902175006 | 65 | 217 | 8.0 | 15.0 | 0.00 | 0.00 | 0.00 | 18 | 1013.5 |
| 20260902174906 | 65 | 223 | 8.0 | 15.0 | 0.00 | 0.00 | 0.00 | 18 | 1013.6 |
| 20260902174806 | 65 | 228 | 8.0 | 14.0 | 0.00 | 0.00 | 0.00 | 18 | 1013.6 |
| 20260902174706 | 65 | 228 | 8.0 | 14.0 | 0.00 | 0.00 | 0.00 | 18 | 1013.7 |
| 20260902174605 | 65 | 241 | 8.0 | 16.0 | 0.00 | 0.00 | 0.00 | 18 | 1013.6 |
| 20260902174505 | 65 | 244 | 5.0 | 16.0 | 0.00 | 0.00 | 0.00 | 18 | 1013.6 |
| 20260902174406 | 65 | 237 | 6.0 | 16.0 | 0.00 | 0.00 | 0.00 | 18 | 1013.6 |
| 20260902174306 | 65 | 233 | 5.0 | 16.0 | 0.00 | 0.00 | 0.00 | 18 | 1013.6 |
| 20260902174105 | 65 | 235 | 4.0 | 16.0 | 0.00 | 0.00 | 0.00 | 18 | 1013.6 |
| 20260902174006 | 65 | 239 | 6.0 | 16.0 | 0.00 | 0.00 | 0.00 | 19 | 1013.6 |
| 20260902173906 | 65 | 234 | 8.0 | 16.0 | 0.00 | 0.00 | 0.00 | 19 | 1013.5 |
| 20260902173806 | 65 | 231 | 11.0 | 16.0 | 0.00 | 0.00 | 0.00 | 19 | 1013.6 |
| 20260902173706 | 64 | 231 | 9.0 | 16.0 | 0.00 | 0.00 | 0.00 | 19 | 1013.6 |
| 20260902173605 | 64 | 226 | 11.0 | 16.0 | 0.00 | 0.00 | 0.00 | 19 | 1013.6 |
| 20260902173505 | 64 | 223 | 8.0 | 16.0 | 0.00 | 0.00 | 0.00 | 19 | 1013.6 |
| 20260902173406 | 64 | 226 | 9.0 | 16.0 | 0.00 | 0.00 | 0.00 | 19 | 1013.6 |
| 20260902173306 | 64 | 228 | 11.0 | 16.0 | 0.00 | 0.00 | 0.00 | 19 | 1013.5 |
| 20260902173205 | 64 | 228 | 9.0 | 17.0 | 0.00 | 0.00 | 0.00 | 19 | 1013.7 |
| 20260902173106 | 64 | 226 | 9.0 | 17.0 | 0.00 | 0.00 | 0.00 | 19 | 1013.6 |
| 20260902173006 | 64 | 223 | 11.0 | 17.0 | 0.00 | 0.00 | 0.00 | 19 | 1013.6 |
| 20260902172905 | 64 | 223 | 11.0 | 17.0 | 0.00 | 0.00 | 0.00 | 19 | 1013.6 |
| 20260902172805 | 64 | 222 | 7.0 | 17.0 | 0.00 | 0.00 | 0.00 | 19 | 1013.6 |
| 20260902172706 | 64 | 220 | 9.0 | 17.0 | 0.00 | 0.00 | 0.00 | 19 | 1013.6 |
| 20260902172606 | 64 | 225 | 6.0 | 17.0 | 0.00 | 0.00 | 0.00 | 19 | 1013.6 |
| 20260902172506 | 64 | 225 | 8.0 | 17.0 | 0.00 | 0.00 | 0.00 | 19 | 1013.7 |
| 20260902172406 | 64 | 225 | 9.0 | 17.0 | 0.00 | 0.00 | 0.00 | 19 | 1013.6 |
| 20260902172308 | 64 | 222 | 11.0 | 17.0 | 0.00 | 0.00 | 0.00 | 19 | 1013.6 |
| 20260902172206 | 64 | 218 | 8.0 | 14.0 | 0.00 | 0.00 | 0.00 | 19 | 1013.6 |
| 20260902172105 | 64 | 221 | 8.0 | 14.0 | 0.00 | 0.00 | 0.00 | 20 | 1013.6 |
| 20260902172006 | 64 | 225 | 9.0 | 15.0 | 0.00 | 0.00 | 0.00 | 20 | 1013.6 |
| 20260902171906 | 64 | 227 | 6.0 | 15.0 | 0.00 | 0.00 | 0.00 | 20 | 1013.6 |
| 20260902171806 | 64 | 232 | 7.0 | 15.0 | 0.00 | 0.00 | 0.00 | 20 | 1013.6 |
| 20260902171705 | 64 | 231 | 8.0 | 15.0 | 0.00 | 0.00 | 0.00 | 20 | 1013.7 |
| 20260902171605 | 64 | 224 | 4.0 | 15.0 | 0.00 | 0.00 | 0.00 | 21 | 1013.7 |
| 20260902171505 | 64 | 224 | 4.0 | 15.0 | 0.00 | 0.00 | 0.00 | 21 | 1013.6 |
| 20260902171406 | 64 | 224 | 4.0 | 15.0 | 0.00 | 0.00 | 0.00 | 21 | 1013.6 |
| 20260902171306 | 64 | 226 | 5.0 | 15.0 | 0.00 | 0.00 | 0.00 | 20 | 1013.6 |
| 20260902171206 | 64 | 231 | 7.0 | 15.0 | 0.00 | 0.00 | 0.00 | 20 | 1013.6 |
| 20260902171105 | 64 | 234 | 5.0 | 15.0 | 0.00 | 0.00 | 0.00 | 20 | 1013.6 |
| 20260902171005 | 64 | 236 | 10.0 | 15.0 | 0.00 | 0.00 | 0.00 | 20 | 1013.6 |
| 20260902170906 | 64 | 238 | 8.0 | 13.0 | 0.00 | 0.00 | 0.00 | 20 | 1013.6 |
| 20260902170405 | 63 | 250 | 8.0 | 13.0 | 0.00 | 0.00 | 0.00 | 21 | 1013.4 |
| 20260902170305 | 63 | 251 | 7.0 | 13.0 | 0.00 | 0.00 | 0.00 | 21 | 1013.6 |
| 20260902170206 | 63 | 248 | 4.0 | 13.0 | 0.00 | 0.00 | 0.00 | 21 | 1013.5 |
| 20260902170106 | 63 | 242 | 8.0 | 13.0 | 0.00 | 0.00 | 0.00 | 21 | 1013.4 |
| 20260902170006 | 63 | 237 | 7.0 | 13.0 | 0.00 | 0.00 | 0.00 | 21 | 1013.4 |
| 20260902165905 | 63 | 229 | 9.0 | 12.0 | 0.00 | 0.00 | 0.00 | 21 | 1013.3 |
| 20260902165806 | 63 | 227 | 8.0 | 12.0 | 0.00 | 0.00 | 0.00 | 21 | 1013.3 |
| 20260902165706 | 63 | 224 | 5.0 | 15.0 | 0.00 | 0.00 | 0.00 | 21 | 1013.3 |
| 20260902165606 | 63 | 225 | 5.0 | 17.0 | 0.00 | 0.00 | 0.00 | 22 | 1013.3 |
| 20260902165505 | 63 | 225 | 5.0 | 17.0 | 0.00 | 0.00 | 0.00 | 22 | 1013.4 |
| 20260902165406 | 63 | 226 | 7.0 | 17.0 | 0.00 | 0.00 | 0.00 | 22 | 1013.4 |
| 20260902165309 | 63 | 227 | 8.0 | 17.0 | 0.00 | 0.00 | 0.00 | 21 | 1013.4 |
| 20260902165206 | 63 | 229 | 7.0 | 17.0 | 0.00 | 0.00 | 0.00 | 22 | 1013.4 |
| 20260902165106 | 63 | 234 | 4.0 | 17.0 | 0.00 | 0.00 | 0.00 | 22 | 1013.4 |
| 20260902165006 | 63 | 244 | 5.0 | 17.0 | 0.00 | 0.00 | 0.00 | 22 | 1013.4 |
| 20260902164906 | 63 | 246 | 8.0 | 17.0 | 0.00 | 0.00 | 0.00 | 22 | 1013.4 |
| 20260902164806 | 63 | 251 | 11.0 | 17.0 | 0.00 | 0.00 | 0.00 | 21 | 1013.4 |
| 20260902164706 | 63 | 251 | 11.0 | 17.0 | 0.00 | 0.00 | 0.00 | 21 | 1013.3 |
| 20260902164605 | 63 | 247 | 10.0 | 17.0 | 0.00 | 0.00 | 0.00 | 21 | 1013.3 |
| 20260902164506 | 63 | 251 | 9.0 | 15.0 | 0.00 | 0.00 | 0.00 | 21 | 1013.3 |
| 20260902164406 | 63 | 254 | 8.0 | 15.0 | 0.00 | 0.00 | 0.00 | 21 | 1013.3 |
| 20260902163806 | 63 | 240 | 9.0 | 15.0 | 0.00 | 0.00 | 0.00 | 21 | 1013.5 |
| 20260902163705 | 63 | 243 | 7.0 | 14.0 | 0.00 | 0.00 | 0.00 | 20 | 1013.3 |
| 20260902163605 | 63 | 245 | 8.0 | 14.0 | 0.00 | 0.00 | 0.00 | 21 | 1013.3 |
| 20260902163506 | 63 | 240 | 4.0 | 14.0 | 0.00 | 0.00 | 0.00 | 21 | 1013.3 |
| 20260902163406 | 63 | 241 | 5.0 | 14.0 | 0.00 | 0.00 | 0.00 | 21 | 1013.3 |
| 20260902163305 | 63 | 244 | 6.0 | 14.0 | 0.00 | 0.00 | 0.00 | 20 | 1013.3 |
| 20260902163206 | 64 | 251 | 7.0 | 14.0 | 0.00 | 0.00 | 0.00 | 20 | 1013.4 |
| 20260902163106 | 64 | 256 | 7.0 | 14.0 | 0.00 | 0.00 | 0.00 | 20 | 1013.4 |
| 20260902163006 | 64 | 262 | 7.0 | 14.0 | 0.00 | 0.00 | 0.00 | 20 | 1013.4 |
| 20260902162906 | 64 | 270 | 7.0 | 14.0 | 0.00 | 0.00 | 0.00 | 20 | 1013.3 |
| 20260902162806 | 64 | 273 | 8.0 | 14.0 | 0.00 | 0.00 | 0.00 | 19 | 1013.3 |
| 20260902162705 | 64 | 278 | 8.0 | 14.0 | 0.00 | 0.00 | 0.00 | 19 | 1013.3 |
| 20260902162606 | 64 | 282 | 9.0 | 14.0 | 0.00 | 0.00 | 0.00 | 19 | 1013.2 |
| 20260902162506 | 64 | 290 | 6.0 | 12.0 | 0.00 | 0.00 | 0.00 | 19 | 1013.2 |
| 20260902162406 | 63 | 297 | 4.0 | 10.0 | 0.00 | 0.00 | 0.00 | 19 | 1013.3 |
| 20260902162307 | 63 | 304 | 6.0 | 10.0 | 0.00 | 0.00 | 0.00 | 19 | 1013.4 |
| 20260902162206 | 63 | 298 | 6.0 | 10.0 | 0.00 | 0.00 | 0.00 | 19 | 1013.2 |
| 20260902162106 | 63 | 289 | 6.0 | 14.0 | 0.00 | 0.00 | 0.00 | 19 | 1013.3 |
| 20260902162006 | 63 | 274 | 6.0 | 14.0 | 0.00 | 0.00 | 0.00 | 19 | 1013.3 |
| 20260902161905 | 63 | 248 | 6.0 | 14.0 | 0.00 | 0.00 | 0.00 | 19 | 1013.3 |
| 20260902161706 | 62 | 231 | 6.0 | 15.0 | 0.00 | 0.00 | 0.00 | 19 | 1013.3 |
| 20260902161606 | 62 | 236 | 6.0 | 15.0 | 0.00 | 0.00 | 0.00 | 19 | 1013.3 |
| 20260902161506 | 62 | 238 | 6.0 | 15.0 | 0.00 | 0.00 | 0.00 | 19 | 1013.3 |
| 20260902161406 | 62 | 243 | 6.0 | 15.0 | 0.00 | 0.00 | 0.00 | 19 | 1013.3 |
| 20260902161306 | 62 | 244 | 4.0 | 15.0 | 0.00 | 0.00 | 0.00 | 19 | 1013.3 |
| 20260902161206 | 62 | 237 | 6.0 | 15.0 | 0.00 | 0.00 | 0.00 | 19 | 1013.3 |
| 20260902161105 | 62 | 243 | 8.0 | 15.0 | 0.00 | 0.00 | 0.00 | 19 | 1013.4 |
| 20260902161006 | 62 | 253 | 8.0 | 15.0 | 0.00 | 0.00 | 0.00 | 19 | 1013.3 |
| 20260902160906 | 62 | 250 | 4.0 | 15.0 | 0.00 | 0.00 | 0.00 | 19 | 1013.3 |
| 20260902160805 | 62 | 245 | 2.0 | 15.0 | 0.00 | 0.00 | 0.00 | 19 | 1013.4 |
| 20260902160706 | 62 | 240 | 3.0 | 15.0 | 0.00 | 0.00 | 0.00 | 19 | 1013.3 |
| 20260902160605 | 63 | 235 | 8.0 | 15.0 | 0.00 | 0.00 | 0.00 | 19 | 1013.3 |
| 20260902160505 | 62 | 231 | 6.0 | 15.0 | 0.00 | 0.00 | 0.00 | 19 | 1013.4 |
| 20260902160406 | 62 | 233 | 6.0 | 15.0 | 0.00 | 0.00 | 0.00 | 19 | 1013.3 |
| 20260902160306 | 62 | 232 | 4.0 | 15.0 | 0.00 | 0.00 | 0.00 | 19 | 1013.4 |
| 20260902160205 | 62 | 239 | 10.0 | 15.0 | 0.00 | 0.00 | 0.00 | 19 | 1013.4 |
| 20260902160106 | 62 | 237 | 6.0 | 15.0 | 0.00 | 0.00 | 0.00 | 19 | 1013.3 |
| 20260902160008 | 62 | 229 | 8.0 | 15.0 | 0.00 | 0.00 | 0.00 | 19 | 1013.4 |
| 20260902155905 | 62 | 229 | 8.0 | 15.0 | 0.00 | 0.00 | 0.00 | 19 | 1013.4 |
| 20260902155806 | 62 | 229 | 8.0 | 15.0 | 0.00 | 0.00 | 0.00 | 19 | 1013.5 |
| 20260902155705 | 62 | 229 | 4.0 | 15.0 | 0.00 | 0.00 | 0.00 | 20 | 1013.5 |
| 20260902155606 | 62 | 229 | 4.0 | 15.0 | 0.00 | 0.00 | 0.00 | 20 | 1013.5 |
| 20260902155506 | 62 | 232 | 6.0 | 15.0 | 0.00 | 0.00 | 0.00 | 20 | 1013.6 |
| 20260902155406 | 62 | 228 | 6.0 | 15.0 | 0.00 | 0.00 | 0.00 | 20 | 1013.5 |
| 20260902155307 | 62 | 224 | 7.0 | 15.0 | 0.00 | 0.00 | 0.00 | 21 | 1013.5 |
| 20260902155106 | 62 | 223 | 5.0 | 15.0 | 0.00 | 0.00 | 0.00 | 21 | 1013.5 |
| 20260902155006 | 62 | 225 | 11.0 | 15.0 | 0.00 | 0.00 | 0.00 | 20 | 1013.6 |
| 20260902154905 | 62 | 227 | 8.0 | 15.0 | 0.00 | 0.00 | 0.00 | 21 | 1013.6 |
| 20260902154806 | 62 | 230 | 7.0 | 13.0 | 0.00 | 0.00 | 0.00 | 21 | 1013.6 |
| 20260902154706 | 62 | 230 | 5.0 | 13.0 | 0.00 | 0.00 | 0.00 | 21 | 1013.6 |
| 20260902154605 | 62 | 236 | 4.0 | 15.0 | 0.00 | 0.00 | 0.00 | 21 | 1013.7 |
| 20260902154506 | 62 | 237 | 9.0 | 17.0 | 0.00 | 0.00 | 0.00 | 21 | 1013.6 |
| 20260902154406 | 62 | 244 | 9.0 | 17.0 | 0.00 | 0.00 | 0.00 | 21 | 1013.6 |
| 20260902154305 | 62 | 244 | 7.0 | 17.0 | 0.00 | 0.00 | 0.00 | 21 | 1013.6 |
| 20260902154206 | 62 | 244 | 9.0 | 17.0 | 0.00 | 0.00 | 0.00 | 21 | 1013.6 |
| 20260902153706 | 62 | 236 | 6.0 | 17.0 | 0.00 | 0.00 | 0.00 | 21 | 1013.5 |
| 20260902153206 | 62 | 231 | 11.0 | 16.0 | 0.00 | 0.00 | 0.00 | 21 | 1013.5 |
| 20260902153105 | 62 | 230 | 12.0 | 15.0 | 0.00 | 0.00 | 0.00 | 21 | 1013.5 |
| 20260902153006 | 62 | 228 | 8.0 | 15.0 | 0.00 | 0.00 | 0.00 | 20 | 1013.5 |
| 20260902152905 | 62 | 224 | 8.0 | 15.0 | 0.00 | 0.00 | 0.00 | 20 | 1013.5 |
| 20260902152805 | 62 | 226 | 8.0 | 11.0 | 0.00 | 0.00 | 0.00 | 20 | 1013.6 |
| 20260902152706 | 62 | 234 | 5.0 | 11.0 | 0.00 | 0.00 | 0.00 | 20 | 1013.6 |
| 20260902152606 | 62 | 245 | 6.0 | 11.0 | 0.00 | 0.00 | 0.00 | 20 | 1013.6 |
| 20260902152505 | 62 | 252 | 7.0 | 16.0 | 0.00 | 0.00 | 0.00 | 19 | 1013.5 |
| 20260902152405 | 62 | 269 | 2.0 | 16.0 | 0.00 | 0.00 | 0.00 | 19 | 1013.5 |
| 20260902152308 | 62 | 270 | 6.0 | 16.0 | 0.00 | 0.00 | 0.00 | 19 | 1013.5 |
| 20260902152206 | 62 | 264 | 6.0 | 16.0 | 0.00 | 0.00 | 0.00 | 20 | 1013.5 |
| 20260902152105 | 62 | 255 | 4.0 | 16.0 | 0.00 | 0.00 | 0.00 | 20 | 1013.5 |
| 20260902152006 | 62 | 251 | 5.0 | 16.0 | 0.00 | 0.00 | 0.00 | 19 | 1013.4 |
| 20260902151906 | 62 | 254 | 7.0 | 16.0 | 0.00 | 0.00 | 0.00 | 19 | 1013.4 |
| 20260902151805 | 62 | 252 | 6.0 | 16.0 | 0.00 | 0.00 | 0.00 | 19 | 1013.4 |
| 20260902151705 | 62 | 244 | 7.0 | 16.0 | 0.00 | 0.00 | 0.00 | 19 | 1013.5 |
| 20260902151606 | 62 | 236 | 10.0 | 16.0 | 0.00 | 0.00 | 0.00 | 19 | 1013.3 |
| 20260902151506 | 62 | 234 | 11.0 | 16.0 | 0.00 | 0.00 | 0.00 | 19 | 1013.3 |
| 20260902151306 | 62 | 218 | 8.0 | 16.0 | 0.00 | 0.00 | 0.00 | 20 | 1013.4 |
| 20260902151206 | 61 | 216 | 11.0 | 16.0 | 0.00 | 0.00 | 0.00 | 20 | 1013.3 |
| 20260902151105 | 61 | 222 | 7.0 | 16.0 | 0.00 | 0.00 | 0.00 | 20 | 1013.3 |
| 20260902151006 | 61 | 225 | 8.0 | 16.0 | 0.00 | 0.00 | 0.00 | 20 | 1013.3 |
| 20260902150906 | 61 | 225 | 10.0 | 16.0 | 0.00 | 0.00 | 0.00 | 21 | 1013.3 |
| 20260902150806 | 61 | 224 | 7.0 | 11.0 | 0.00 | 0.00 | 0.00 | 22 | 1013.3 |
| 20260902150706 | 60 | 224 | 6.0 | 10.0 | 0.00 | 0.00 | 0.00 | 22 | 1013.3 |
| 20260902150613 | 60 | 224 | 7.0 | 10.0 | 0.00 | 0.00 | 0.00 | 22 | 1013.3 |
| 20260902150305 | 60 | 220 | 4.0 | 8.0 | 0.00 | 0.00 | 0.00 | 24 | 1013.3 |
| 20260902150206 | 59 | 219 | 5.0 | 8.0 | 0.00 | 0.00 | 0.00 | 23 | 1013.3 |
| 20260902150006 | 59 | 212 | 4.0 | 6.0 | 0.00 | 0.00 | 0.00 | 24 | 1013.3 |
| 20260902145906 | 59 | 206 | 4.0 | 6.0 | 0.00 | 0.00 | 0.00 | 24 | 1013.3 |
| 20260902145805 | 57 | 200 | 3.0 | 4.0 | 0.00 | 0.00 | 0.00 | 26 | 1013.3 |
| 20260902145706 | 57 | 212 | 3.0 | 4.0 | 0.00 | 0.00 | 0.00 | 26 | 1013.4 |
| 20260902145606 | 57 | 208 | 3.0 | 4.0 | 0.00 | 0.00 | 0.00 | 26 | 1013.3 |
| 20260902145505 | 57 | 213 | 3.0 | 4.0 | 0.00 | 0.00 | 0.00 | 26 | 1013.4 |
| 20260902145406 | 57 | 221 | 3.0 | 4.0 | 0.00 | 0.00 | 0.00 | 26 | 1013.2 |
| 20260902145306 | 57 | 225 | 2.0 | 4.0 | 0.00 | 0.00 | 0.00 | 26 | 1013.2 |
| 20260902145206 | 57 | 225 | 2.0 | 4.0 | 0.00 | 0.00 | 0.00 | 27 | 1013.2 |
| 20260902145106 | 56 | 225 | 2.0 | 4.0 | 0.00 | 0.00 | 0.00 | 27 | 1013.2 |
| 20260902145005 | 56 | 225 | 1.0 | 3.0 | 0.00 | 0.00 | 0.00 | 27 | 1013.3 |
| 20260902144906 | 56 | 225 | 1.0 | 3.0 | 0.00 | 0.00 | 0.00 | 27 | 1013.2 |
| 20260902144806 | 56 | 0 | 0.0 | 1.0 | 0.00 | 0.00 | 0.00 | 27 | 1013.1 |
| 20260902134806 | 67 | 316 | 7.0 | 10.0 | 0.00 | 0.00 | 0.00 | 22 | 1011.2 |
| 20260902134705 | 67 | 316 | 7.0 | 10.0 | 0.00 | 0.00 | 0.00 | 22 | 1011.2 |
| 20260902134605 | 67 | 316 | 7.0 | 10.0 | 0.00 | 0.00 | 0.00 | 22 | 1011.2 |
| 20260902134506 | 67 | 316 | 7.0 | 10.0 | 0.00 | 0.00 | 0.00 | 22 | 1011.2 |
| 20260902134406 | 67 | 316 | 7.0 | 10.0 | 0.00 | 0.00 | 0.00 | 22 | 1011.3 |
| 20260902134306 | 67 | 316 | 7.0 | 10.0 | 0.00 | 0.00 | 0.00 | 22 | 1011.4 |
| 20260902134206 | 67 | 316 | 7.0 | 10.0 | 0.00 | 0.00 | 0.00 | 22 | 1011.3 |
| 20260902134105 | 67 | 316 | 7.0 | 10.0 | 0.00 | 0.00 | 0.00 | 22 | 1011.2 |
| 20260902134006 | 67 | 316 | 7.0 | 10.0 | 0.00 | 0.00 | 0.00 | 22 | 1011.2 |
| 20260902133805 | 67 | 316 | 7.0 | 10.0 | 0.00 | 0.00 | 0.00 | 22 | 1011.3 |
| 20260902133706 | 67 | 316 | 7.0 | 10.0 | 0.00 | 0.00 | 0.00 | 22 | 1011.3 |
| 20260902133605 | 67 | 316 | 7.0 | 10.0 | 0.00 | 0.00 | 0.00 | 22 | 1011.3 |
| 20260902133506 | 67 | 316 | 7.0 | 10.0 | 0.00 | 0.00 | 0.00 | 22 | 1011.3 |
| 20260902133406 | 67 | 316 | 7.0 | 10.0 | 0.00 | 0.00 | 0.00 | 22 | 1011.2 |
| 20260902133306 | 67 | 316 | 7.0 | 10.0 | 0.00 | 0.00 | 0.00 | 22 | 1011.2 |
| 20260902133006 | 67 | 316 | 7.0 | 10.0 | 0.00 | 0.00 | 0.00 | 22 | 1011.2 |
| 20260902132905 | 67 | 316 | 7.0 | 10.0 | 0.00 | 0.00 | 0.00 | 22 | 1011.1 |
| 20260902132806 | 67 | 316 | 7.0 | 10.0 | 0.00 | 0.00 | 0.00 | 22 | 1011.1 |
| 20260902132705 | 67 | 316 | 7.0 | 10.0 | 0.00 | 0.00 | 0.00 | 22 | 1011.1 |
| 20260902132605 | 67 | 316 | 7.0 | 10.0 | 0.00 | 0.00 | 0.00 | 22 | 1011.1 |
| 20260902132505 | 67 | 316 | 7.0 | 10.0 | 0.00 | 0.00 | 0.00 | 22 | 1011.1 |
| 20260902132406 | 67 | 316 | 7.0 | 10.0 | 0.00 | 0.00 | 0.00 | 22 | 1011.2 |
| 20260902132307 | 67 | 316 | 7.0 | 10.0 | 0.00 | 0.00 | 0.00 | 22 | 1011.0 |
| 20260902132205 | 67 | 316 | 7.0 | 10.0 | 0.00 | 0.00 | 0.00 | 22 | 1011.1 |
| 20260902132106 | 67 | 316 | 7.0 | 10.0 | 0.00 | 0.00 | 0.00 | 22 | 1011.1 |
| 20260902132006 | 67 | 316 | 7.0 | 10.0 | 0.00 | 0.00 | 0.00 | 22 | 1011.1 |
| 20260902131905 | 67 | 316 | 7.0 | 10.0 | 0.00 | 0.00 | 0.00 | 22 | 1011.1 |
| 20260902131805 | 67 | 316 | 7.0 | 10.0 | 0.00 | 0.00 | 0.00 | 22 | 1011.1 |
| 20260902131706 | 67 | 316 | 7.0 | 10.0 | 0.00 | 0.00 | 0.00 | 22 | 1011.0 |
| 20260902131606 | 67 | 316 | 7.0 | 10.0 | 0.00 | 0.00 | 0.00 | 22 | 1011.1 |
| 20260902131505 | 67 | 316 | 7.0 | 10.0 | 0.00 | 0.00 | 0.00 | 22 | 1011.1 |
| 20260902131405 | 67 | 316 | 7.0 | 10.0 | 0.00 | 0.00 | 0.00 | 22 | 1010.9 |
| 20260902131306 | 67 | 316 | 7.0 | 10.0 | 0.00 | 0.00 | 0.00 | 22 | 1010.9 |
| 20260902131206 | 67 | 316 | 7.0 | 10.0 | 0.00 | 0.00 | 0.00 | 22 | 1011.0 |
| 20260902131105 | 67 | 316 | 7.0 | 10.0 | 0.00 | 0.00 | 0.00 | 22 | 1011.0 |
| 20260902131005 | 67 | 316 | 7.0 | 10.0 | 0.00 | 0.00 | 0.00 | 22 | 1011.0 |
| 20260902130906 | 67 | 316 | 7.0 | 10.0 | 0.00 | 0.00 | 0.00 | 22 | 1010.9 |
| 20260902130805 | 67 | 316 | 7.0 | 10.0 | 0.00 | 0.00 | 0.00 | 22 | 1010.9 |
| 20260902130706 | 67 | 316 | 7.0 | 10.0 | 0.00 | 0.00 | 0.00 | 22 | 1010.9 |
| 20260902130606 | 67 | 316 | 7.0 | 10.0 | 0.00 | 0.00 | 0.00 | 22 | 1010.9 |
| 20260902130505 | 67 | 316 | 7.0 | 10.0 | 0.00 | 0.00 | 0.00 | 22 | 1010.9 |
| 20260902130406 | 67 | 316 | 7.0 | 10.0 | 0.00 | 0.00 | 0.00 | 22 | 1011.0 |
| 20260902130306 | 67 | 316 | 7.0 | 10.0 | 0.00 | 0.00 | 0.00 | 22 | 1010.9 |
| 20260902130205 | 67 | 316 | 7.0 | 10.0 | 0.00 | 0.00 | 0.00 | 22 | 1010.8 |
| 20260902130106 | 67 | 316 | 7.0 | 10.0 | 0.00 | 0.00 | 0.00 | 22 | 1010.9 |
| 20260902130005 | 67 | 316 | 7.0 | 10.0 | 0.00 | 0.00 | 0.00 | 22 | 1010.9 |
| 20260902125906 | 67 | 316 | 7.0 | 10.0 | 0.00 | 0.00 | 0.00 | 22 | 1010.8 |
| 20260902125806 | 67 | 316 | 7.0 | 10.0 | 0.00 | 0.00 | 0.00 | 22 | 1010.9 |
| 20260902125705 | 67 | 316 | 7.0 | 10.0 | 0.00 | 0.00 | 0.00 | 22 | 1010.9 |
| 20260902125606 | 67 | 316 | 7.0 | 10.0 | 0.00 | 0.00 | 0.00 | 22 | 1010.9 |
| 20260902125506 | 67 | 316 | 7.0 | 10.0 | 0.00 | 0.00 | 0.00 | 22 | 1011.0 |
| 20260902125405 | 67 | 316 | 7.0 | 10.0 | 0.00 | 0.00 | 0.00 | 22 | 1010.9 |
| 20260902125306 | 67 | 316 | 7.0 | 10.0 | 0.00 | 0.00 | 0.00 | 22 | 1010.9 |
| 20260902125206 | 67 | 316 | 7.0 | 10.0 | 0.00 | 0.00 | 0.00 | 22 | 1010.9 |
| 20260902125105 | 67 | 316 | 7.0 | 10.0 | 0.00 | 0.00 | 0.00 | 22 | 1010.9 |
| 20260902125005 | 67 | 316 | 7.0 | 10.0 | 0.00 | 0.00 | 0.00 | 22 | 1010.9 |
| 20260902124906 | 67 | 316 | 7.0 | 10.0 | 0.00 | 0.00 | 0.00 | 22 | 1010.8 |
| 20260902124806 | 67 | 316 | 7.0 | 10.0 | 0.00 | 0.00 | 0.00 | 22 | 1010.8 |
| 20260902124705 | 67 | 316 | 7.0 | 10.0 | 0.00 | 0.00 | 0.00 | 22 | 1010.9 |
| 20260902124606 | 67 | 316 | 7.0 | 10.0 | 0.00 | 0.00 | 0.00 | 22 | 1010.8 |
| 20260902124506 | 67 | 316 | 7.0 | 10.0 | 0.00 | 0.00 | 0.00 | 22 | 1010.7 |
| 20260902124405 | 67 | 316 | 7.0 | 10.0 | 0.00 | 0.00 | 0.00 | 22 | 1010.7 |
| 20260902123706 | 67 | 316 | 7.0 | 10.0 | 0.00 | 0.00 | 0.00 | 22 | 1010.6 |
| 20260902123605 | 67 | 316 | 7.0 | 10.0 | 0.00 | 0.00 | 0.00 | 22 | 1010.8 |
| 20260902123505 | 67 | 316 | 7.0 | 10.0 | 0.00 | 0.00 | 0.00 | 22 | 1010.6 |
| 20260902123405 | 67 | 316 | 7.0 | 10.0 | 0.00 | 0.00 | 0.00 | 22 | 1010.6 |
| 20260902123306 | 67 | 316 | 7.0 | 10.0 | 0.00 | 0.00 | 0.00 | 22 | 1010.8 |
| 20260902123205 | 67 | 316 | 7.0 | 10.0 | 0.00 | 0.00 | 0.00 | 22 | 1010.7 |
| 20260902123105 | 67 | 316 | 7.0 | 10.0 | 0.00 | 0.00 | 0.00 | 22 | 1010.6 |
| 20260902123006 | 67 | 316 | 7.0 | 10.0 | 0.00 | 0.00 | 0.00 | 22 | 1010.6 |
| 20260902122906 | 67 | 316 | 7.0 | 10.0 | 0.00 | 0.00 | 0.00 | 22 | 1010.7 |
| 20260902122805 | 67 | 316 | 7.0 | 10.0 | 0.00 | 0.00 | 0.00 | 22 | 1010.7 |
| 20260902122705 | 67 | 316 | 7.0 | 10.0 | 0.00 | 0.00 | 0.00 | 22 | 1010.7 |
| 20260902122606 | 67 | 316 | 7.0 | 10.0 | 0.00 | 0.00 | 0.00 | 22 | 1010.6 |
| 20260902122506 | 67 | 316 | 7.0 | 10.0 | 0.00 | 0.00 | 0.00 | 22 | 1010.7 |
| 20260902122405 | 67 | 316 | 7.0 | 10.0 | 0.00 | 0.00 | 0.00 | 22 | 1010.7 |
| 20260902122205 | 67 | 316 | 7.0 | 10.0 | 0.00 | 0.00 | 0.00 | 22 | 1010.7 |
| 20260902122105 | 67 | 316 | 7.0 | 10.0 | 0.00 | 0.00 | 0.00 | 22 | 1010.7 |
| 20260902122005 | 67 | 316 | 7.0 | 10.0 | 0.00 | 0.00 | 0.00 | 22 | 1010.7 |
| 20260902121906 | 67 | 316 | 7.0 | 10.0 | 0.00 | 0.00 | 0.00 | 22 | 1010.6 |
| 20260902121806 | 67 | 316 | 7.0 | 10.0 | 0.00 | 0.00 | 0.00 | 22 | 1010.7 |
| 20260902121705 | 67 | 316 | 7.0 | 10.0 | 0.00 | 0.00 | 0.00 | 22 | 1010.9 |
| 20260902121205 | 67 | 316 | 7.0 | 10.0 | 0.00 | 0.00 | 0.00 | 22 | 1010.8 |
| 20260902121105 | 67 | 316 | 7.0 | 10.0 | 0.00 | 0.00 | 0.00 | 22 | 1010.9 |
| 20260902121006 | 67 | 316 | 7.0 | 10.0 | 0.00 | 0.00 | 0.00 | 22 | 1010.9 |
| 20260902120906 | 67 | 316 | 7.0 | 10.0 | 0.00 | 0.00 | 0.00 | 22 | 1010.7 |
| 20260902120805 | 67 | 316 | 7.0 | 10.0 | 0.00 | 0.00 | 0.00 | 22 | 1010.9 |
| 20260902120705 | 67 | 316 | 7.0 | 10.0 | 0.00 | 0.00 | 0.00 | 22 | 1010.7 |
| 20260902120606 | 67 | 316 | 7.0 | 10.0 | 0.00 | 0.00 | 0.00 | 22 | 1010.7 |
| 20260902120505 | 67 | 316 | 7.0 | 10.0 | 0.00 | 0.00 | 0.00 | 22 | 1010.7 |
| 20260902120405 | 67 | 316 | 7.0 | 10.0 | 0.00 | 0.00 | 0.00 | 22 | 1010.7 |
| 20260902120305 | 67 | 316 | 7.0 | 10.0 | 0.00 | 0.00 | 0.00 | 22 | 1010.8 |
| 20260902120206 | 67 | 316 | 7.0 | 10.0 | 0.00 | 0.00 | 0.00 | 22 | 1010.7 |
| 20260902120106 | 67 | 316 | 7.0 | 10.0 | 0.00 | 0.00 | 0.00 | 22 | 1010.8 |
| 20260902120005 | 67 | 316 | 7.0 | 10.0 | 0.00 | 0.00 | 0.00 | 22 | 1010.7 |
| 20260902115906 | 67 | 316 | 7.0 | 10.0 | 0.00 | 0.00 | 0.00 | 22 | 1010.7 |
| 20260902115806 | 67 | 316 | 7.0 | 10.0 | 0.00 | 0.00 | 0.00 | 22 | 1010.6 |
| 20260902115705 | 67 | 316 | 7.0 | 10.0 | 0.00 | 0.00 | 0.00 | 22 | 1010.9 |
| 20260902115606 | 67 | 316 | 7.0 | 10.0 | 0.00 | 0.00 | 0.00 | 22 | 1010.9 |
| 20260902115506 | 67 | 316 | 7.0 | 10.0 | 0.00 | 0.00 | 0.00 | 22 | 1010.7 |
| 20260902115406 | 67 | 316 | 7.0 | 10.0 | 0.00 | 0.00 | 0.00 | 22 | 1010.8 |
| 20260902115308 | 67 | 316 | 7.0 | 10.0 | 0.00 | 0.00 | 0.00 | 22 | 1010.9 |
| 20260902115205 | 67 | 316 | 7.0 | 10.0 | 0.00 | 0.00 | 0.00 | 22 | 1010.9 |
| 20260902115106 | 67 | 316 | 7.0 | 10.0 | 0.00 | 0.00 | 0.00 | 22 | 1010.7 |
| 20260902115006 | 67 | 316 | 7.0 | 10.0 | 0.00 | 0.00 | 0.00 | 22 | 1010.8 |
| 20260902114905 | 67 | 316 | 7.0 | 10.0 | 0.00 | 0.00 | 0.00 | 22 | 1010.8 |
| 20260902114806 | 67 | 316 | 7.0 | 10.0 | 0.00 | 0.00 | 0.00 | 22 | 1010.7 |
| 20260902114706 | 67 | 316 | 7.0 | 10.0 | 0.00 | 0.00 | 0.00 | 22 | 1010.8 |
| 20260902114605 | 67 | 316 | 7.0 | 10.0 | 0.00 | 0.00 | 0.00 | 22 | 1010.8 |
| 20260902114506 | 67 | 316 | 7.0 | 10.0 | 0.00 | 0.00 | 0.00 | 22 | 1010.8 |
| 20260902114405 | 67 | 316 | 7.0 | 10.0 | 0.00 | 0.00 | 0.00 | 22 | 1010.9 |
| 20260902114305 | 67 | 316 | 7.0 | 10.0 | 0.00 | 0.00 | 0.00 | 22 | 1010.7 |
| 20260902114206 | 67 | 316 | 7.0 | 10.0 | 0.00 | 0.00 | 0.00 | 22 | 1010.8 |
| 20260902114106 | 67 | 316 | 7.0 | 10.0 | 0.00 | 0.00 | 0.00 | 22 | 1010.7 |
| 20260902114006 | 67 | 316 | 7.0 | 10.0 | 0.00 | 0.00 | 0.00 | 22 | 1010.8 |
| 20260902113906 | 67 | 316 | 7.0 | 10.0 | 0.00 | 0.00 | 0.00 | 22 | 1010.8 |
| 20260902113805 | 67 | 316 | 7.0 | 10.0 | 0.00 | 0.00 | 0.00 | 22 | 1010.7 |
| 20260902113706 | 67 | 316 | 7.0 | 10.0 | 0.00 | 0.00 | 0.00 | 22 | 1010.8 |
| 20260902113606 | 67 | 316 | 7.0 | 10.0 | 0.00 | 0.00 | 0.00 | 22 | 1010.9 |
| 20260902113505 | 67 | 316 | 7.0 | 10.0 | 0.00 | 0.00 | 0.00 | 22 | 1010.7 |
| 20260902113406 | 67 | 316 | 7.0 | 10.0 | 0.00 | 0.00 | 0.00 | 22 | 1010.8 |
| 20260902113305 | 67 | 316 | 7.0 | 10.0 | 0.00 | 0.00 | 0.00 | 22 | 1010.8 |
| 20260902113206 | 67 | 316 | 7.0 | 10.0 | 0.00 | 0.00 | 0.00 | 22 | 1010.8 |
| 20260902113106 | 67 | 316 | 7.0 | 10.0 | 0.00 | 0.00 | 0.00 | 22 | 1010.9 |
| 20260902113005 | 67 | 316 | 7.0 | 10.0 | 0.00 | 0.00 | 0.00 | 22 | 1010.7 |
| 20260902112906 | 67 | 316 | 7.0 | 10.0 | 0.00 | 0.00 | 0.00 | 22 | 1010.8 |
| 20260902112806 | 67 | 316 | 7.0 | 10.0 | 0.00 | 0.00 | 0.00 | 22 | 1010.8 |
| 20260902112705 | 67 | 316 | 7.0 | 10.0 | 0.00 | 0.00 | 0.00 | 22 | 1010.8 |
| 20260902112606 | 67 | 316 | 7.0 | 10.0 | 0.00 | 0.00 | 0.00 | 22 | 1010.7 |
| 20260902112505 | 67 | 316 | 7.0 | 10.0 | 0.00 | 0.00 | 0.00 | 22 | 1010.7 |
| 20260902112405 | 67 | 316 | 7.0 | 10.0 | 0.00 | 0.00 | 0.00 | 22 | 1010.7 |
| 20260902112306 | 67 | 316 | 7.0 | 10.0 | 0.00 | 0.00 | 0.00 | 22 | 1010.7 |
| 20260902112206 | 67 | 316 | 7.0 | 10.0 | 0.00 | 0.00 | 0.00 | 22 | 1010.8 |
| 20260902112105 | 67 | 316 | 7.0 | 10.0 | 0.00 | 0.00 | 0.00 | 22 | 1010.7 |
| 20260902112005 | 67 | 316 | 7.0 | 10.0 | 0.00 | 0.00 | 0.00 | 22 | 1010.7 |
| 20260902111905 | 67 | 316 | 7.0 | 10.0 | 0.00 | 0.00 | 0.00 | 22 | 1010.6 |
| 20260902111806 | 67 | 316 | 7.0 | 10.0 | 0.00 | 0.00 | 0.00 | 22 | 1010.7 |
| 20260902111705 | 67 | 316 | 7.0 | 10.0 | 0.00 | 0.00 | 0.00 | 22 | 1010.8 |
| 20260902111606 | 67 | 316 | 7.0 | 10.0 | 0.00 | 0.00 | 0.00 | 22 | 1010.8 |
| 20260902111506 | 67 | 316 | 7.0 | 10.0 | 0.00 | 0.00 | 0.00 | 22 | 1010.8 |
| 20260902111405 | 67 | 316 | 7.0 | 10.0 | 0.00 | 0.00 | 0.00 | 22 | 1010.9 |
| 20260902111306 | 67 | 316 | 7.0 | 10.0 | 0.00 | 0.00 | 0.00 | 22 | 1010.8 |
| 20260902111206 | 67 | 316 | 7.0 | 10.0 | 0.00 | 0.00 | 0.00 | 22 | 1010.8 |
| 20260902111105 | 67 | 316 | 7.0 | 10.0 | 0.00 | 0.00 | 0.00 | 22 | 1010.8 |
| 20260902111006 | 67 | 316 | 7.0 | 10.0 | 0.00 | 0.00 | 0.00 | 22 | 1010.8 |
| 20260902110905 | 67 | 316 | 7.0 | 10.0 | 0.00 | 0.00 | 0.00 | 22 | 1010.8 |
| 20260902110806 | 67 | 316 | 7.0 | 10.0 | 0.00 | 0.00 | 0.00 | 22 | 1010.7 |
| 20260902110705 | 67 | 316 | 7.0 | 10.0 | 0.00 | 0.00 | 0.00 | 22 | 1010.7 |
| 20260902110605 | 67 | 316 | 7.0 | 10.0 | 0.00 | 0.00 | 0.00 | 22 | 1010.6 |
| 20260902110505 | 67 | 316 | 7.0 | 10.0 | 0.00 | 0.00 | 0.00 | 22 | 1010.6 |
| 20260902110406 | 67 | 316 | 7.0 | 10.0 | 0.00 | 0.00 | 0.00 | 22 | 1010.6 |
| 20260902110306 | 67 | 316 | 7.0 | 10.0 | 0.00 | 0.00 | 0.00 | 22 | 1010.6 |
| 20260902110205 | 67 | 316 | 7.0 | 10.0 | 0.00 | 0.00 | 0.00 | 22 | 1010.6 |
| 20260902110105 | 67 | 316 | 7.0 | 10.0 | 0.00 | 0.00 | 0.00 | 22 | 1010.6 |
| 20260902110008 | 67 | 316 | 7.0 | 10.0 | 0.00 | 0.00 | 0.00 | 22 | 1010.6 |
| 20260902105906 | 67 | 316 | 7.0 | 10.0 | 0.00 | 0.00 | 0.00 | 22 | 1010.6 |
| 20260902105805 | 67 | 316 | 7.0 | 10.0 | 0.00 | 0.00 | 0.00 | 22 | 1010.6 |
| 20260902105706 | 67 | 316 | 7.0 | 10.0 | 0.00 | 0.00 | 0.00 | 22 | 1010.6 |
| 20260902105605 | 67 | 316 | 7.0 | 10.0 | 0.00 | 0.00 | 0.00 | 22 | 1010.6 |
| 20260902105505 | 67 | 316 | 7.0 | 10.0 | 0.00 | 0.00 | 0.00 | 22 | 1010.7 |
| 20260902105405 | 67 | 316 | 7.0 | 10.0 | 0.00 | 0.00 | 0.00 | 22 | 1010.7 |
| 20260902105306 | 67 | 316 | 7.0 | 10.0 | 0.00 | 0.00 | 0.00 | 22 | 1010.6 |
| 20260902105205 | 67 | 316 | 7.0 | 10.0 | 0.00 | 0.00 | 0.00 | 22 | 1010.6 |
| 20260902105105 | 67 | 316 | 7.0 | 10.0 | 0.00 | 0.00 | 0.00 | 22 | 1010.6 |
| 20260902104505 | 67 | 316 | 7.0 | 10.0 | 0.00 | 0.00 | 0.00 | 22 | 1010.7 |
| 20260902104406 | 67 | 316 | 7.0 | 10.0 | 0.00 | 0.00 | 0.00 | 22 | 1010.6 |
| 20260902104305 | 67 | 316 | 7.0 | 10.0 | 0.00 | 0.00 | 0.00 | 22 | 1010.7 |
| 20260902104205 | 67 | 316 | 7.0 | 10.0 | 0.00 | 0.00 | 0.00 | 22 | 1010.6 |
| 20260902104106 | 67 | 316 | 7.0 | 10.0 | 0.00 | 0.00 | 0.00 | 22 | 1010.6 |
| 20260902104006 | 67 | 316 | 7.0 | 10.0 | 0.00 | 0.00 | 0.00 | 22 | 1010.6 |
| 20260902103905 | 67 | 316 | 7.0 | 10.0 | 0.00 | 0.00 | 0.00 | 22 | 1010.5 |
| 20260902103805 | 67 | 316 | 7.0 | 10.0 | 0.00 | 0.00 | 0.00 | 22 | 1010.5 |
| 20260902103706 | 67 | 316 | 7.0 | 10.0 | 0.00 | 0.00 | 0.00 | 22 | 1010.5 |
| 20260902103605 | 67 | 316 | 7.0 | 10.0 | 0.00 | 0.00 | 0.00 | 22 | 1010.5 |
| 20260902103505 | 67 | 316 | 7.0 | 10.0 | 0.00 | 0.00 | 0.00 | 22 | 1010.5 |
| 20260902103406 | 67 | 316 | 7.0 | 10.0 | 0.00 | 0.00 | 0.00 | 22 | 1010.5 |
| 20260902103306 | 67 | 316 | 7.0 | 10.0 | 0.00 | 0.00 | 0.00 | 22 | 1010.5 |
| 20260902103205 | 67 | 316 | 7.0 | 10.0 | 0.00 | 0.00 | 0.00 | 22 | 1010.7 |
| 20260902103106 | 67 | 316 | 7.0 | 10.0 | 0.00 | 0.00 | 0.00 | 22 | 1010.5 |
| 20260902103006 | 67 | 316 | 7.0 | 10.0 | 0.00 | 0.00 | 0.00 | 22 | 1010.5 |
| 20260902102905 | 67 | 316 | 7.0 | 10.0 | 0.00 | 0.00 | 0.00 | 22 | 1010.5 |
| 20260902102806 | 67 | 316 | 7.0 | 10.0 | 0.00 | 0.00 | 0.00 | 22 | 1010.6 |
| 20260902102705 | 67 | 316 | 7.0 | 10.0 | 0.00 | 0.00 | 0.00 | 22 | 1010.4 |
| 20260902102606 | 67 | 316 | 7.0 | 10.0 | 0.00 | 0.00 | 0.00 | 22 | 1010.6 |
| 20260902102506 | 67 | 316 | 7.0 | 10.0 | 0.00 | 0.00 | 0.00 | 22 | 1010.5 |
| 20260902102405 | 67 | 316 | 7.0 | 10.0 | 0.00 | 0.00 | 0.00 | 22 | 1010.4 |
| 20260902102307 | 67 | 316 | 7.0 | 10.0 | 0.00 | 0.00 | 0.00 | 22 | 1010.4 |
| 20260902102206 | 67 | 316 | 7.0 | 10.0 | 0.00 | 0.00 | 0.00 | 22 | 1010.4 |
| 20260902102105 | 67 | 316 | 7.0 | 10.0 | 0.00 | 0.00 | 0.00 | 22 | 1010.4 |
| 20260902102006 | 67 | 316 | 7.0 | 10.0 | 0.00 | 0.00 | 0.00 | 22 | 1010.2 |
| 20260902101905 | 67 | 316 | 7.0 | 10.0 | 0.00 | 0.00 | 0.00 | 22 | 1010.3 |
| 20260902101806 | 67 | 316 | 7.0 | 10.0 | 0.00 | 0.00 | 0.00 | 22 | 1010.3 |
| 20260902101706 | 67 | 316 | 7.0 | 10.0 | 0.00 | 0.00 | 0.00 | 22 | 1010.2 |
| 20260902101605 | 67 | 316 | 7.0 | 10.0 | 0.00 | 0.00 | 0.00 | 22 | 1010.3 |
| 20260902101505 | 67 | 316 | 7.0 | 10.0 | 0.00 | 0.00 | 0.00 | 22 | 1010.3 |
| 20260902101406 | 67 | 316 | 7.0 | 10.0 | 0.00 | 0.00 | 0.00 | 22 | 1010.4 |
| 20260902101305 | 67 | 316 | 7.0 | 10.0 | 0.00 | 0.00 | 0.00 | 22 | 1010.3 |
| 20260902101205 | 67 | 316 | 7.0 | 10.0 | 0.00 | 0.00 | 0.00 | 22 | 1010.3 |
| 20260902101106 | 67 | 316 | 7.0 | 10.0 | 0.00 | 0.00 | 0.00 | 22 | 1010.3 |
| 20260902101005 | 67 | 316 | 7.0 | 10.0 | 0.00 | 0.00 | 0.00 | 22 | 1010.2 |
| 20260902100905 | 67 | 316 | 7.0 | 10.0 | 0.00 | 0.00 | 0.00 | 22 | 1010.2 |
| 20260902100806 | 67 | 316 | 7.0 | 10.0 | 0.00 | 0.00 | 0.00 | 22 | 1010.3 |
| 20260902100605 | 67 | 316 | 7.0 | 10.0 | 0.00 | 0.00 | 0.00 | 22 | 1010.1 |
| 20260902100505 | 67 | 316 | 7.0 | 10.0 | 0.00 | 0.00 | 0.00 | 22 | 1010.3 |
| 20260902100406 | 67 | 316 | 7.0 | 10.0 | 0.00 | 0.00 | 0.00 | 22 | 1010.2 |
| 20260902100305 | 67 | 316 | 7.0 | 10.0 | 0.00 | 0.00 | 0.00 | 22 | 1010.2 |
| 20260902100106 | 67 | 316 | 7.0 | 10.0 | 0.00 | 0.00 | 0.00 | 22 | 1010.2 |
| 20260902100005 | 67 | 316 | 7.0 | 10.0 | 0.00 | 0.00 | 0.00 | 22 | 1010.1 |
| 20260902095906 | 67 | 316 | 7.0 | 10.0 | 0.00 | 0.00 | 0.00 | 22 | 1010.3 |
| 20260902095806 | 67 | 316 | 7.0 | 10.0 | 0.00 | 0.00 | 0.00 | 22 | 1010.2 |
| 20260902095705 | 67 | 316 | 7.0 | 10.0 | 0.00 | 0.00 | 0.00 | 22 | 1010.1 |
| 20260902095606 | 67 | 316 | 7.0 | 10.0 | 0.00 | 0.00 | 0.00 | 22 | 1010.1 |
| 20260902095505 | 67 | 316 | 7.0 | 10.0 | 0.00 | 0.00 | 0.00 | 22 | 1010.2 |
| 20260902095405 | 67 | 316 | 7.0 | 10.0 | 0.00 | 0.00 | 0.00 | 22 | 1010.0 |
| 20260902095307 | 67 | 316 | 7.0 | 10.0 | 0.00 | 0.00 | 0.00 | 22 | 1010.2 |
| 20260902095206 | 67 | 316 | 7.0 | 10.0 | 0.00 | 0.00 | 0.00 | 22 | 1010.2 |
| 20260902095005 | 67 | 316 | 7.0 | 10.0 | 0.00 | 0.00 | 0.00 | 22 | 1010.2 |
| 20260902094906 | 67 | 316 | 7.0 | 10.0 | 0.00 | 0.00 | 0.00 | 22 | 1010.1 |
| 20260902094806 | 67 | 316 | 7.0 | 10.0 | 0.00 | 0.00 | 0.00 | 22 | 1010.1 |
| 20260902094705 | 67 | 316 | 7.0 | 10.0 | 0.00 | 0.00 | 0.00 | 22 | 1010.1 |
| 20260902094606 | 67 | 316 | 7.0 | 10.0 | 0.00 | 0.00 | 0.00 | 22 | 1010.1 |
| 20260902094505 | 67 | 316 | 7.0 | 10.0 | 0.00 | 0.00 | 0.00 | 22 | 1010.0 |
| 20260902094405 | 67 | 316 | 7.0 | 10.0 | 0.00 | 0.00 | 0.00 | 22 | 1010.0 |
| 20260902094306 | 67 | 316 | 7.0 | 10.0 | 0.00 | 0.00 | 0.00 | 22 | 1010.1 |
| 20260902094205 | 67 | 316 | 7.0 | 10.0 | 0.00 | 0.00 | 0.00 | 22 | 1010.0 |
| 20260902094106 | 67 | 316 | 7.0 | 10.0 | 0.00 | 0.00 | 0.00 | 22 | 1010.1 |
| 20260902094006 | 67 | 316 | 7.0 | 10.0 | 0.00 | 0.00 | 0.00 | 22 | 1010.2 |
| 20260902093905 | 67 | 316 | 7.0 | 10.0 | 0.00 | 0.00 | 0.00 | 22 | 1010.2 |
| 20260902093805 | 67 | 316 | 7.0 | 10.0 | 0.00 | 0.00 | 0.00 | 22 | 1010.1 |
| 20260902093706 | 67 | 316 | 7.0 | 10.0 | 0.00 | 0.00 | 0.00 | 22 | 1010.1 |
| 20260902093605 | 67 | 316 | 7.0 | 10.0 | 0.00 | 0.00 | 0.00 | 22 | 1010.1 |
| 20260902093505 | 67 | 316 | 7.0 | 10.0 | 0.00 | 0.00 | 0.00 | 22 | 1010.0 |
| 20260902093405 | 67 | 316 | 7.0 | 10.0 | 0.00 | 0.00 | 0.00 | 22 | 1010.0 |
| 20260902093306 | 67 | 316 | 7.0 | 10.0 | 0.00 | 0.00 | 0.00 | 22 | 1010.0 |
| 20260902093205 | 67 | 316 | 7.0 | 10.0 | 0.00 | 0.00 | 0.00 | 22 | 1010.0 |
| 20260902093105 | 67 | 316 | 7.0 | 10.0 | 0.00 | 0.00 | 0.00 | 22 | 1010.0 |
| 20260902093005 | 67 | 316 | 7.0 | 10.0 | 0.00 | 0.00 | 0.00 | 22 | 1009.9 |
| 20260902092906 | 67 | 316 | 7.0 | 10.0 | 0.00 | 0.00 | 0.00 | 22 | 1010.0 |
| 20260902092805 | 67 | 316 | 7.0 | 10.0 | 0.00 | 0.00 | 0.00 | 22 | 1010.0 |
| 20260902092205 | 67 | 316 | 7.0 | 10.0 | 0.00 | 0.00 | 0.00 | 22 | 1010.0 |
| 20260902092106 | 67 | 316 | 7.0 | 10.0 | 0.00 | 0.00 | 0.00 | 22 | 1010.2 |
| 20260902092006 | 67 | 316 | 7.0 | 10.0 | 0.00 | 0.00 | 0.00 | 22 | 1010.1 |
| 20260902091905 | 67 | 316 | 7.0 | 10.0 | 0.00 | 0.00 | 0.00 | 22 | 1010.1 |
| 20260902091806 | 67 | 316 | 7.0 | 10.0 | 0.00 | 0.00 | 0.00 | 22 | 1010.1 |
| 20260902091705 | 67 | 316 | 7.0 | 10.0 | 0.00 | 0.00 | 0.00 | 22 | 1010.0 |
| 20260902091605 | 67 | 316 | 7.0 | 10.0 | 0.00 | 0.00 | 0.00 | 22 | 1010.1 |
| 20260902091506 | 67 | 316 | 7.0 | 10.0 | 0.00 | 0.00 | 0.00 | 22 | 1010.1 |
| 20260902091405 | 67 | 316 | 7.0 | 10.0 | 0.00 | 0.00 | 0.00 | 22 | 1010.0 |
| 20260902091305 | 67 | 316 | 7.0 | 10.0 | 0.00 | 0.00 | 0.00 | 22 | 1010.0 |
| 20260902091206 | 67 | 316 | 7.0 | 10.0 | 0.00 | 0.00 | 0.00 | 22 | 1010.0 |
| 20260902091106 | 67 | 316 | 7.0 | 10.0 | 0.00 | 0.00 | 0.00 | 22 | 1010.0 |
| 20260902091005 | 67 | 316 | 7.0 | 10.0 | 0.00 | 0.00 | 0.00 | 22 | 1010.0 |
| 20260902090905 | 67 | 316 | 7.0 | 10.0 | 0.00 | 0.00 | 0.00 | 22 | 1010.0 |
| 20260902090806 | 67 | 316 | 7.0 | 10.0 | 0.00 | 0.00 | 0.00 | 22 | 1009.9 |
| 20260902090705 | 67 | 316 | 7.0 | 10.0 | 0.00 | 0.00 | 0.00 | 22 | 1010.0 |
| 20260902090605 | 67 | 316 | 7.0 | 10.0 | 0.00 | 0.00 | 0.00 | 22 | 1010.0 |
| 20260902090506 | 67 | 316 | 7.0 | 10.0 | 0.00 | 0.00 | 0.00 | 22 | 1010.0 |
| 20260902090406 | 67 | 316 | 7.0 | 10.0 | 0.00 | 0.00 | 0.00 | 22 | 1009.9 |
| 20260902090305 | 67 | 316 | 7.0 | 10.0 | 0.00 | 0.00 | 0.00 | 22 | 1010.1 |
| 20260902090205 | 67 | 316 | 7.0 | 10.0 | 0.00 | 0.00 | 0.00 | 22 | 1010.0 |
| 20260902090106 | 67 | 316 | 7.0 | 10.0 | 0.00 | 0.00 | 0.00 | 22 | 1010.1 |
| 20260902090005 | 67 | 316 | 7.0 | 10.0 | 0.00 | 0.00 | 0.00 | 22 | 1010.0 |
| 20260902085905 | 67 | 316 | 7.0 | 10.0 | 0.00 | 0.00 | 0.00 | 22 | 1010.2 |
| 20260902085805 | 67 | 316 | 7.0 | 10.0 | 0.00 | 0.00 | 0.00 | 22 | 1010.0 |
| 20260902085706 | 67 | 316 | 7.0 | 10.0 | 0.00 | 0.00 | 0.00 | 22 | 1010.1 |
| 20260902085605 | 67 | 316 | 7.0 | 10.0 | 0.00 | 0.00 | 0.00 | 22 | 1010.2 |
| 20260902085505 | 67 | 316 | 7.0 | 10.0 | 0.00 | 0.00 | 0.00 | 22 | 1010.2 |
| 20260902085406 | 67 | 316 | 7.0 | 10.0 | 0.00 | 0.00 | 0.00 | 22 | 1010.2 |
| 20260902085306 | 67 | 316 | 7.0 | 10.0 | 0.00 | 0.00 | 0.00 | 22 | 1010.2 |
| 20260902085205 | 67 | 316 | 7.0 | 10.0 | 0.00 | 0.00 | 0.00 | 22 | 1010.2 |
| 20260902085106 | 67 | 316 | 7.0 | 10.0 | 0.00 | 0.00 | 0.00 | 22 | 1010.1 |
| 20260902085005 | 67 | 316 | 7.0 | 10.0 | 0.00 | 0.00 | 0.00 | 22 | 1010.1 |
| 20260902084905 | 67 | 316 | 7.0 | 10.0 | 0.00 | 0.00 | 0.00 | 22 | 1010.1 |
| 20260902084806 | 67 | 316 | 7.0 | 10.0 | 0.00 | 0.00 | 0.00 | 22 | 1010.3 |
| 20260902084705 | 67 | 316 | 7.0 | 10.0 | 0.00 | 0.00 | 0.00 | 22 | 1010.2 |
| 20260902084605 | 67 | 316 | 7.0 | 10.0 | 0.00 | 0.00 | 0.00 | 22 | 1010.1 |
| 20260902084505 | 67 | 316 | 7.0 | 10.0 | 0.00 | 0.00 | 0.00 | 22 | 1010.1 |
| 20260902083906 | 67 | 316 | 7.0 | 10.0 | 0.00 | 0.00 | 0.00 | 22 | 1010.2 |
| 20260902083805 | 67 | 316 | 7.0 | 10.0 | 0.00 | 0.00 | 0.00 | 22 | 1010.1 |
| 20260902083705 | 67 | 316 | 7.0 | 10.0 | 0.00 | 0.00 | 0.00 | 22 | 1010.1 |
| 20260902083605 | 67 | 316 | 7.0 | 10.0 | 0.00 | 0.00 | 0.00 | 22 | 1010.2 |
| 20260902083506 | 67 | 316 | 7.0 | 10.0 | 0.00 | 0.00 | 0.00 | 22 | 1010.2 |
| 20260902083405 | 67 | 316 | 7.0 | 10.0 | 0.00 | 0.00 | 0.00 | 22 | 1010.2 |
| 20260902083305 | 67 | 316 | 7.0 | 10.0 | 0.00 | 0.00 | 0.00 | 22 | 1010.2 |
| 20260902083206 | 67 | 316 | 7.0 | 10.0 | 0.00 | 0.00 | 0.00 | 22 | 1010.2 |
| 20260902083105 | 67 | 316 | 7.0 | 10.0 | 0.00 | 0.00 | 0.00 | 22 | 1010.2 |
| 20260902083005 | 67 | 316 | 7.0 | 10.0 | 0.00 | 0.00 | 0.00 | 22 | 1010.2 |
| 20260902082906 | 67 | 316 | 7.0 | 10.0 | 0.00 | 0.00 | 0.00 | 22 | 1010.2 |
| 20260902082805 | 67 | 316 | 7.0 | 10.0 | 0.00 | 0.00 | 0.00 | 22 | 1010.2 |
| 20260902082705 | 67 | 316 | 7.0 | 10.0 | 0.00 | 0.00 | 0.00 | 22 | 1010.2 |
| 20260902082606 | 67 | 316 | 7.0 | 10.0 | 0.00 | 0.00 | 0.00 | 22 | 1010.2 |
| 20260902082505 | 67 | 316 | 7.0 | 10.0 | 0.00 | 0.00 | 0.00 | 22 | 1010.4 |
| 20260902082405 | 67 | 316 | 7.0 | 10.0 | 0.00 | 0.00 | 0.00 | 22 | 1010.3 |
| 20260902082309 | 67 | 316 | 7.0 | 10.0 | 0.00 | 0.00 | 0.00 | 22 | 1010.2 |
| 20260902082206 | 67 | 316 | 7.0 | 10.0 | 0.00 | 0.00 | 0.00 | 22 | 1010.3 |
| 20260902082105 | 67 | 316 | 7.0 | 10.0 | 0.00 | 0.00 | 0.00 | 22 | 1010.3 |
| 20260902082006 | 67 | 316 | 7.0 | 10.0 | 0.00 | 0.00 | 0.00 | 22 | 1010.2 |
| 20260902081906 | 67 | 316 | 7.0 | 10.0 | 0.00 | 0.00 | 0.00 | 22 | 1010.2 |
| 20260902081805 | 67 | 316 | 7.0 | 10.0 | 0.00 | 0.00 | 0.00 | 22 | 1010.2 |
| 20260902081605 | 67 | 316 | 7.0 | 10.0 | 0.00 | 0.00 | 0.00 | 22 | 1010.2 |
| 20260902081505 | 67 | 316 | 7.0 | 10.0 | 0.00 | 0.00 | 0.00 | 22 | 1010.1 |
| 20260902081405 | 67 | 316 | 7.0 | 10.0 | 0.00 | 0.00 | 0.00 | 22 | 1010.2 |
| 20260902081306 | 67 | 316 | 7.0 | 10.0 | 0.00 | 0.00 | 0.00 | 22 | 1010.2 |
| 20260902081205 | 67 | 316 | 7.0 | 10.0 | 0.00 | 0.00 | 0.00 | 22 | 1010.1 |
| 20260902081105 | 67 | 316 | 7.0 | 10.0 | 0.00 | 0.00 | 0.00 | 22 | 1010.1 |
| 20260902081006 | 67 | 316 | 7.0 | 10.0 | 0.00 | 0.00 | 0.00 | 22 | 1010.1 |
| 20260902080905 | 67 | 316 | 7.0 | 10.0 | 0.00 | 0.00 | 0.00 | 22 | 1010.0 |
| 20260902080805 | 67 | 316 | 7.0 | 10.0 | 0.00 | 0.00 | 0.00 | 22 | 1010.1 |
| 20260902080706 | 67 | 316 | 7.0 | 10.0 | 0.00 | 0.00 | 0.00 | 22 | 1010.0 |
| 20260902080605 | 67 | 316 | 7.0 | 10.0 | 0.00 | 0.00 | 0.00 | 22 | 1010.0 |
| 20260902080505 | 67 | 316 | 7.0 | 10.0 | 0.00 | 0.00 | 0.00 | 22 | 1010.0 |
| 20260902080406 | 67 | 316 | 7.0 | 10.0 | 0.00 | 0.00 | 0.00 | 22 | 1010.1 |
| 20260902080305 | 67 | 316 | 7.0 | 10.0 | 0.00 | 0.00 | 0.00 | 22 | 1010.1 |
| 20260902080205 | 67 | 316 | 7.0 | 10.0 | 0.00 | 0.00 | 0.00 | 22 | 1010.1 |
| 20260902080106 | 67 | 316 | 7.0 | 10.0 | 0.00 | 0.00 | 0.00 | 22 | 1010.0 |
| 20260902080005 | 67 | 316 | 7.0 | 10.0 | 0.00 | 0.00 | 0.00 | 22 | 1010.0 |
| 20260902075905 | 67 | 316 | 7.0 | 10.0 | 0.00 | 0.00 | 0.00 | 22 | 1010.0 |
| 20260902075806 | 67 | 316 | 7.0 | 10.0 | 0.00 | 0.00 | 0.00 | 22 | 1009.9 |
| 20260902075705 | 67 | 316 | 7.0 | 10.0 | 0.00 | 0.00 | 0.00 | 22 | 1009.9 |
| 20260902075506 | 67 | 316 | 7.0 | 10.0 | 0.00 | 0.00 | 0.00 | 22 | 1009.9 |
| 20260902075405 | 67 | 316 | 7.0 | 10.0 | 0.00 | 0.00 | 0.00 | 22 | 1010.0 |
| 20260902075306 | 67 | 316 | 7.0 | 10.0 | 0.00 | 0.00 | 0.00 | 22 | 1009.9 |
| 20260902075206 | 67 | 316 | 7.0 | 10.0 | 0.00 | 0.00 | 0.00 | 22 | 1009.9 |
| 20260902075105 | 67 | 316 | 7.0 | 10.0 | 0.00 | 0.00 | 0.00 | 22 | 1009.9 |
| 20260902075006 | 67 | 316 | 7.0 | 10.0 | 0.00 | 0.00 | 0.00 | 22 | 1009.9 |
| 20260902074506 | 67 | 316 | 7.0 | 10.0 | 0.00 | 0.00 | 0.00 | 22 | 1009.8 |
| 20260902074405 | 67 | 316 | 7.0 | 10.0 | 0.00 | 0.00 | 0.00 | 22 | 1009.8 |
| 20260902074305 | 67 | 316 | 7.0 | 10.0 | 0.00 | 0.00 | 0.00 | 22 | 1009.9 |
| 20260902074206 | 67 | 316 | 7.0 | 10.0 | 0.00 | 0.00 | 0.00 | 22 | 1009.8 |
| 20260902074105 | 67 | 316 | 7.0 | 10.0 | 0.00 | 0.00 | 0.00 | 22 | 1009.8 |
| 20260902074005 | 67 | 316 | 7.0 | 10.0 | 0.00 | 0.00 | 0.00 | 22 | 1009.9 |
| 20260902073905 | 67 | 316 | 7.0 | 10.0 | 0.00 | 0.00 | 0.00 | 22 | 1009.9 |
| 20260902073806 | 67 | 316 | 7.0 | 10.0 | 0.00 | 0.00 | 0.00 | 22 | 1009.8 |
| 20260902073705 | 67 | 316 | 7.0 | 10.0 | 0.00 | 0.00 | 0.00 | 22 | 1009.8 |
| 20260902073605 | 67 | 316 | 7.0 | 10.0 | 0.00 | 0.00 | 0.00 | 22 | 1009.7 |
| 20260902073505 | 67 | 316 | 7.0 | 10.0 | 0.00 | 0.00 | 0.00 | 22 | 1009.9 |
| 20260902073406 | 67 | 316 | 7.0 | 10.0 | 0.00 | 0.00 | 0.00 | 22 | 1009.9 |
| 20260902073306 | 67 | 316 | 7.0 | 10.0 | 0.00 | 0.00 | 0.00 | 22 | 1009.7 |
| 20260902073205 | 67 | 316 | 7.0 | 10.0 | 0.00 | 0.00 | 0.00 | 22 | 1009.7 |
| 20260902073106 | 67 | 316 | 7.0 | 10.0 | 0.00 | 0.00 | 0.00 | 22 | 1009.6 |
| 20260902073005 | 67 | 316 | 7.0 | 10.0 | 0.00 | 0.00 | 0.00 | 22 | 1009.6 |
| 20260902072905 | 67 | 316 | 7.0 | 10.0 | 0.00 | 0.00 | 0.00 | 22 | 1009.7 |
| 20260902072806 | 67 | 316 | 7.0 | 10.0 | 0.00 | 0.00 | 0.00 | 22 | 1009.7 |
| 20260902072705 | 67 | 316 | 7.0 | 10.0 | 0.00 | 0.00 | 0.00 | 22 | 1009.7 |
| 20260902072605 | 67 | 316 | 7.0 | 10.0 | 0.00 | 0.00 | 0.00 | 22 | 1009.6 |
| 20260902072505 | 67 | 316 | 7.0 | 10.0 | 0.00 | 0.00 | 0.00 | 22 | 1009.5 |
| 20260902072406 | 67 | 316 | 7.0 | 10.0 | 0.00 | 0.00 | 0.00 | 22 | 1009.7 |
| 20260902072309 | 67 | 316 | 7.0 | 10.0 | 0.00 | 0.00 | 0.00 | 22 | 1009.8 |
| 20260902072205 | 67 | 316 | 7.0 | 10.0 | 0.00 | 0.00 | 0.00 | 22 | 1009.8 |
| 20260902072106 | 67 | 316 | 7.0 | 10.0 | 0.00 | 0.00 | 0.00 | 22 | 1009.7 |
| 20260902072005 | 67 | 316 | 7.0 | 10.0 | 0.00 | 0.00 | 0.00 | 22 | 1009.7 |
| 20260902071905 | 67 | 316 | 7.0 | 10.0 | 0.00 | 0.00 | 0.00 | 22 | 1009.7 |
| 20260902071806 | 67 | 316 | 7.0 | 10.0 | 0.00 | 0.00 | 0.00 | 22 | 1009.7 |
| 20260902071706 | 67 | 316 | 7.0 | 10.0 | 0.00 | 0.00 | 0.00 | 22 | 1009.5 |
| 20260902071605 | 67 | 316 | 7.0 | 10.0 | 0.00 | 0.00 | 0.00 | 22 | 1009.7 |
| 20260902071506 | 67 | 316 | 7.0 | 10.0 | 0.00 | 0.00 | 0.00 | 22 | 1009.7 |
| 20260902071405 | 67 | 316 | 7.0 | 10.0 | 0.00 | 0.00 | 0.00 | 22 | 1009.7 |
| 20260902071305 | 67 | 316 | 7.0 | 10.0 | 0.00 | 0.00 | 0.00 | 22 | 1009.5 |
| 20260902071206 | 67 | 316 | 7.0 | 10.0 | 0.00 | 0.00 | 0.00 | 22 | 1009.7 |
| 20260902071105 | 67 | 316 | 7.0 | 10.0 | 0.00 | 0.00 | 0.00 | 22 | 1009.7 |
| 20260902071005 | 67 | 316 | 7.0 | 10.0 | 0.00 | 0.00 | 0.00 | 22 | 1009.7 |
| 20260902070905 | 67 | 316 | 7.0 | 10.0 | 0.00 | 0.00 | 0.00 | 22 | 1009.6 |
| 20260902070806 | 67 | 316 | 7.0 | 10.0 | 0.00 | 0.00 | 0.00 | 22 | 1009.7 |
| 20260902070705 | 67 | 316 | 7.0 | 10.0 | 0.00 | 0.00 | 0.00 | 22 | 1009.7 |
| 20260902070605 | 67 | 316 | 7.0 | 10.0 | 0.00 | 0.00 | 0.00 | 22 | 1009.6 |
| 20260902070506 | 67 | 316 | 7.0 | 10.0 | 0.00 | 0.00 | 0.00 | 22 | 1009.7 |
| 20260902070405 | 67 | 316 | 7.0 | 10.0 | 0.00 | 0.00 | 0.00 | 22 | 1009.6 |
| 20260902070305 | 67 | 316 | 7.0 | 10.0 | 0.00 | 0.00 | 0.00 | 22 | 1009.6 |
| 20260902070205 | 67 | 316 | 7.0 | 10.0 | 0.00 | 0.00 | 0.00 | 22 | 1009.6 |
| 20260902070105 | 67 | 316 | 7.0 | 10.0 | 0.00 | 0.00 | 0.00 | 22 | 1009.5 |
| 20260902070009 | 67 | 316 | 7.0 | 10.0 | 0.00 | 0.00 | 0.00 | 22 | 1009.6 |
| 20260902065905 | 67 | 316 | 7.0 | 10.0 | 0.00 | 0.00 | 0.00 | 22 | 1009.6 |
| 20260902065706 | 67 | 316 | 7.0 | 10.0 | 0.00 | 0.00 | 0.00 | 22 | 1009.6 |
| 20260902065605 | 67 | 316 | 7.0 | 10.0 | 0.00 | 0.00 | 0.00 | 22 | 1009.6 |
| 20260902065505 | 67 | 316 | 7.0 | 10.0 | 0.00 | 0.00 | 0.00 | 22 | 1009.5 |
| 20260902065405 | 67 | 316 | 7.0 | 10.0 | 0.00 | 0.00 | 0.00 | 22 | 1009.6 |
| 20260902065205 | 67 | 316 | 7.0 | 10.0 | 0.00 | 0.00 | 0.00 | 22 | 1009.6 |
| 20260902065105 | 67 | 316 | 7.0 | 10.0 | 0.00 | 0.00 | 0.00 | 22 | 1009.6 |
| 20260902065006 | 67 | 316 | 7.0 | 10.0 | 0.00 | 0.00 | 0.00 | 22 | 1009.6 |
| 20260902064905 | 67 | 316 | 7.0 | 10.0 | 0.00 | 0.00 | 0.00 | 22 | 1009.6 |
| 20260902064805 | 67 | 316 | 7.0 | 10.0 | 0.00 | 0.00 | 0.00 | 22 | 1009.6 |
| 20260902064706 | 67 | 316 | 7.0 | 10.0 | 0.00 | 0.00 | 0.00 | 22 | 1009.6 |
| 20260902064605 | 67 | 316 | 7.0 | 10.0 | 0.00 | 0.00 | 0.00 | 22 | 1009.7 |
| 20260902064505 | 67 | 316 | 7.0 | 10.0 | 0.00 | 0.00 | 0.00 | 22 | 1009.7 |
| 20260902064406 | 67 | 316 | 7.0 | 10.0 | 0.00 | 0.00 | 0.00 | 22 | 1009.7 |
| 20260902064305 | 67 | 316 | 7.0 | 10.0 | 0.00 | 0.00 | 0.00 | 22 | 1009.6 |
| 20260902063606 | 67 | 316 | 7.0 | 10.0 | 0.00 | 0.00 | 0.00 | 22 | 1009.6 |
| 20260902063505 | 67 | 316 | 7.0 | 10.0 | 0.00 | 0.00 | 0.00 | 22 | 1009.6 |
| 20260902063406 | 67 | 316 | 7.0 | 10.0 | 0.00 | 0.00 | 0.00 | 22 | 1009.5 |
| 20260902063305 | 67 | 316 | 7.0 | 10.0 | 0.00 | 0.00 | 0.00 | 22 | 1009.5 |
| 20260902063206 | 67 | 316 | 7.0 | 10.0 | 0.00 | 0.00 | 0.00 | 22 | 1009.5 |
| 20260902063105 | 67 | 316 | 7.0 | 10.0 | 0.00 | 0.00 | 0.00 | 22 | 1009.4 |
| 20260902063006 | 67 | 316 | 7.0 | 10.0 | 0.00 | 0.00 | 0.00 | 22 | 1009.4 |
| 20260902062505 | 67 | 316 | 7.0 | 10.0 | 0.00 | 0.00 | 0.00 | 22 | 1009.4 |
| 20260902062005 | 67 | 316 | 7.0 | 10.0 | 0.00 | 0.00 | 0.00 | 22 | 1009.4 |
| 20260902061905 | 67 | 316 | 7.0 | 10.0 | 0.00 | 0.00 | 0.00 | 22 | 1009.4 |
| 20260902061805 | 67 | 316 | 7.0 | 10.0 | 0.00 | 0.00 | 0.00 | 22 | 1009.4 |
| 20260902061706 | 67 | 316 | 7.0 | 10.0 | 0.00 | 0.00 | 0.00 | 22 | 1009.4 |
| 20260902061605 | 67 | 316 | 7.0 | 10.0 | 0.00 | 0.00 | 0.00 | 22 | 1009.4 |
| 20260902061505 | 67 | 316 | 7.0 | 10.0 | 0.00 | 0.00 | 0.00 | 22 | 1009.4 |
| 20260902061406 | 67 | 316 | 7.0 | 10.0 | 0.00 | 0.00 | 0.00 | 22 | 1009.3 |
| 20260902060905 | 67 | 316 | 7.0 | 10.0 | 0.00 | 0.00 | 0.00 | 22 | 1009.3 |
| 20260902060806 | 67 | 316 | 7.0 | 10.0 | 0.00 | 0.00 | 0.00 | 22 | 1009.4 |
| 20260902060305 | 67 | 316 | 7.0 | 10.0 | 0.00 | 0.00 | 0.00 | 22 | 1009.3 |
| 20260902060205 | 67 | 316 | 7.0 | 10.0 | 0.00 | 0.00 | 0.00 | 22 | 1009.3 |
| 20260902060106 | 67 | 316 | 7.0 | 10.0 | 0.00 | 0.00 | 0.00 | 22 | 1009.3 |
| 20260902060005 | 67 | 316 | 7.0 | 10.0 | 0.00 | 0.00 | 0.00 | 22 | 1009.4 |
| 20260902055906 | 67 | 316 | 7.0 | 10.0 | 0.00 | 0.00 | 0.00 | 22 | 1009.4 |
| 20260902055206 | 67 | 316 | 7.0 | 10.0 | 0.00 | 0.00 | 0.00 | 22 | 1009.4 |
| 20260902055105 | 67 | 316 | 7.0 | 10.0 | 0.00 | 0.00 | 0.00 | 22 | 1009.3 |
| 20260902055005 | 67 | 316 | 7.0 | 10.0 | 0.00 | 0.00 | 0.00 | 22 | 1009.3 |
| 20260902054906 | 67 | 316 | 7.0 | 10.0 | 0.00 | 0.00 | 0.00 | 22 | 1009.3 |
| 20260902054805 | 67 | 316 | 7.0 | 10.0 | 0.00 | 0.00 | 0.00 | 22 | 1009.4 |
| 20260902054705 | 67 | 316 | 7.0 | 10.0 | 0.00 | 0.00 | 0.00 | 22 | 1009.3 |
| 20260902054606 | 67 | 316 | 7.0 | 10.0 | 0.00 | 0.00 | 0.00 | 22 | 1009.3 |
| 20260902054505 | 67 | 316 | 7.0 | 10.0 | 0.00 | 0.00 | 0.00 | 22 | 1009.2 |
| 20260902054406 | 67 | 316 | 7.0 | 10.0 | 0.00 | 0.00 | 0.00 | 22 | 1009.2 |
| 20260902054305 | 67 | 316 | 7.0 | 10.0 | 0.00 | 0.00 | 0.00 | 22 | 1009.3 |
| 20260902054205 | 67 | 316 | 7.0 | 10.0 | 0.00 | 0.00 | 0.00 | 22 | 1009.1 |
| 20260902054106 | 67 | 316 | 7.0 | 10.0 | 0.00 | 0.00 | 0.00 | 22 | 1009.2 |
| 20260902054005 | 67 | 316 | 7.0 | 10.0 | 0.00 | 0.00 | 0.00 | 22 | 1009.0 |
| 20260902053506 | 67 | 316 | 7.0 | 10.0 | 0.00 | 0.00 | 0.00 | 22 | 1009.2 |
| 20260902053405 | 67 | 316 | 7.0 | 10.0 | 0.00 | 0.00 | 0.00 | 22 | 1009.1 |
| 20260902053306 | 67 | 316 | 7.0 | 10.0 | 0.00 | 0.00 | 0.00 | 22 | 1009.2 |
| 20260902053205 | 67 | 316 | 7.0 | 10.0 | 0.00 | 0.00 | 0.00 | 22 | 1009.3 |
| 20260902053105 | 67 | 316 | 7.0 | 10.0 | 0.00 | 0.00 | 0.00 | 22 | 1009.2 |
| 20260902053005 | 67 | 316 | 7.0 | 10.0 | 0.00 | 0.00 | 0.00 | 22 | 1009.3 |
| 20260902052505 | 67 | 316 | 7.0 | 10.0 | 0.00 | 0.00 | 0.00 | 22 | 1009.4 |
| 20260902052406 | 67 | 316 | 7.0 | 10.0 | 0.00 | 0.00 | 0.00 | 22 | 1009.4 |
| 20260902052307 | 67 | 316 | 7.0 | 10.0 | 0.00 | 0.00 | 0.00 | 22 | 1009.4 |
| 20260902052205 | 67 | 316 | 7.0 | 10.0 | 0.00 | 0.00 | 0.00 | 22 | 1009.4 |
| 20260902052106 | 67 | 316 | 7.0 | 10.0 | 0.00 | 0.00 | 0.00 | 22 | 1009.3 |
| 20260902052005 | 67 | 316 | 7.0 | 10.0 | 0.00 | 0.00 | 0.00 | 22 | 1009.4 |
| 20260902051905 | 67 | 316 | 7.0 | 10.0 | 0.00 | 0.00 | 0.00 | 22 | 1009.4 |
| 20260902051805 | 67 | 316 | 7.0 | 10.0 | 0.00 | 0.00 | 0.00 | 22 | 1009.4 |
| 20260902051705 | 67 | 316 | 7.0 | 10.0 | 0.00 | 0.00 | 0.00 | 22 | 1009.3 |
| 20260902051605 | 67 | 316 | 7.0 | 10.0 | 0.00 | 0.00 | 0.00 | 22 | 1009.4 |
| 20260902051505 | 67 | 316 | 7.0 | 10.0 | 0.00 | 0.00 | 0.00 | 22 | 1009.4 |
| 20260902051405 | 67 | 316 | 7.0 | 10.0 | 0.00 | 0.00 | 0.00 | 22 | 1009.4 |
| 20260902051306 | 67 | 316 | 7.0 | 10.0 | 0.00 | 0.00 | 0.00 | 22 | 1009.3 |
| 20260902051205 | 67 | 316 | 7.0 | 10.0 | 0.00 | 0.00 | 0.00 | 22 | 1009.2 |
| 20260902051106 | 67 | 316 | 7.0 | 10.0 | 0.00 | 0.00 | 0.00 | 22 | 1009.4 |
| 20260902050905 | 67 | 316 | 7.0 | 10.0 | 0.00 | 0.00 | 0.00 | 22 | 1009.4 |
| 20260902050806 | 67 | 316 | 7.0 | 10.0 | 0.00 | 0.00 | 0.00 | 22 | 1009.4 |
| 20260902050705 | 67 | 316 | 7.0 | 10.0 | 0.00 | 0.00 | 0.00 | 22 | 1009.4 |
| 20260902050606 | 67 | 316 | 7.0 | 10.0 | 0.00 | 0.00 | 0.00 | 22 | 1009.4 |
| 20260902050405 | 67 | 316 | 7.0 | 10.0 | 0.00 | 0.00 | 0.00 | 22 | 1009.4 |
| 20260902050306 | 67 | 316 | 7.0 | 10.0 | 0.00 | 0.00 | 0.00 | 22 | 1009.4 |
| 20260902050205 | 67 | 316 | 7.0 | 10.0 | 0.00 | 0.00 | 0.00 | 22 | 1009.3 |
| 20260902050106 | 67 | 316 | 7.0 | 10.0 | 0.00 | 0.00 | 0.00 | 22 | 1009.2 |
| 20260902050008 | 67 | 316 | 7.0 | 10.0 | 0.00 | 0.00 | 0.00 | 22 | 1009.2 |
| 20260902045906 | 67 | 316 | 7.0 | 10.0 | 0.00 | 0.00 | 0.00 | 22 | 1009.2 |
| 20260902045805 | 67 | 316 | 7.0 | 10.0 | 0.00 | 0.00 | 0.00 | 22 | 1009.3 |
| 20260902045705 | 67 | 316 | 7.0 | 10.0 | 0.00 | 0.00 | 0.00 | 22 | 1009.2 |
| 20260902045605 | 67 | 316 | 7.0 | 10.0 | 0.00 | 0.00 | 0.00 | 22 | 1009.4 |
| 20260902045505 | 67 | 316 | 7.0 | 10.0 | 0.00 | 0.00 | 0.00 | 22 | 1009.2 |
| 20260902045405 | 67 | 316 | 7.0 | 10.0 | 0.00 | 0.00 | 0.00 | 22 | 1009.1 |
| 20260902045306 | 67 | 316 | 7.0 | 10.0 | 0.00 | 0.00 | 0.00 | 22 | 1009.2 |
| 20260902045205 | 67 | 316 | 7.0 | 10.0 | 0.00 | 0.00 | 0.00 | 22 | 1009.1 |
| 20260902045105 | 67 | 316 | 7.0 | 10.0 | 0.00 | 0.00 | 0.00 | 22 | 1009.3 |
| 20260902045005 | 67 | 316 | 7.0 | 10.0 | 0.00 | 0.00 | 0.00 | 22 | 1009.2 |
| 20260902044906 | 67 | 316 | 7.0 | 10.0 | 0.00 | 0.00 | 0.00 | 22 | 1009.1 |
| 20260902044805 | 67 | 316 | 7.0 | 10.0 | 0.00 | 0.00 | 0.00 | 22 | 1009.1 |
| 20260902044705 | 67 | 316 | 7.0 | 10.0 | 0.00 | 0.00 | 0.00 | 22 | 1009.2 |
| 20260902044606 | 67 | 316 | 7.0 | 10.0 | 0.00 | 0.00 | 0.00 | 22 | 1009.2 |
| 20260902044505 | 67 | 316 | 7.0 | 10.0 | 0.00 | 0.00 | 0.00 | 22 | 1009.1 |
| 20260902044405 | 67 | 316 | 7.0 | 10.0 | 0.00 | 0.00 | 0.00 | 22 | 1009.1 |
| 20260902044306 | 67 | 316 | 7.0 | 10.0 | 0.00 | 0.00 | 0.00 | 22 | 1009.1 |
| 20260902044205 | 67 | 316 | 7.0 | 10.0 | 0.00 | 0.00 | 0.00 | 22 | 1009.1 |
| 20260902044106 | 67 | 316 | 7.0 | 10.0 | 0.00 | 0.00 | 0.00 | 22 | 1009.1 |
| 20260902044005 | 67 | 316 | 7.0 | 10.0 | 0.00 | 0.00 | 0.00 | 22 | 1009.1 |
| 20260902043906 | 67 | 316 | 7.0 | 10.0 | 0.00 | 0.00 | 0.00 | 22 | 1009.0 |
| 20260902043805 | 67 | 316 | 7.0 | 10.0 | 0.00 | 0.00 | 0.00 | 22 | 1009.1 |
| 20260902043705 | 67 | 316 | 7.0 | 10.0 | 0.00 | 0.00 | 0.00 | 22 | 1008.9 |
| 20260902043605 | 67 | 316 | 7.0 | 10.0 | 0.00 | 0.00 | 0.00 | 22 | 1008.9 |
| 20260902043505 | 67 | 316 | 7.0 | 10.0 | 0.00 | 0.00 | 0.00 | 22 | 1009.1 |
| 20260902043405 | 67 | 316 | 7.0 | 10.0 | 0.00 | 0.00 | 0.00 | 22 | 1008.9 |
| 20260902043306 | 67 | 316 | 7.0 | 10.0 | 0.00 | 0.00 | 0.00 | 22 | 1008.8 |
| 20260902043205 | 67 | 316 | 7.0 | 10.0 | 0.00 | 0.00 | 0.00 | 22 | 1009.0 |
| 20260902043105 | 67 | 316 | 7.0 | 10.0 | 0.00 | 0.00 | 0.00 | 22 | 1008.9 |
| 20260902043006 | 67 | 316 | 7.0 | 10.0 | 0.00 | 0.00 | 0.00 | 22 | 1008.9 |
| 20260902042905 | 67 | 316 | 7.0 | 10.0 | 0.00 | 0.00 | 0.00 | 22 | 1008.9 |
| 20260902042806 | 67 | 316 | 7.0 | 10.0 | 0.00 | 0.00 | 0.00 | 22 | 1008.9 |
| 20260902042705 | 67 | 316 | 7.0 | 10.0 | 0.00 | 0.00 | 0.00 | 22 | 1008.8 |
| 20260902042005 | 67 | 316 | 7.0 | 10.0 | 0.00 | 0.00 | 0.00 | 22 | 1008.8 |
| 20260902041906 | 67 | 316 | 7.0 | 10.0 | 0.00 | 0.00 | 0.00 | 22 | 1008.9 |
| 20260902041805 | 67 | 316 | 7.0 | 10.0 | 0.00 | 0.00 | 0.00 | 22 | 1008.7 |
| 20260902041705 | 67 | 316 | 7.0 | 10.0 | 0.00 | 0.00 | 0.00 | 22 | 1008.8 |
| 20260902041606 | 67 | 316 | 7.0 | 10.0 | 0.00 | 0.00 | 0.00 | 22 | 1008.7 |
| 20260902041505 | 67 | 316 | 7.0 | 10.0 | 0.00 | 0.00 | 0.00 | 22 | 1008.7 |
| 20260902041405 | 67 | 316 | 7.0 | 10.0 | 0.00 | 0.00 | 0.00 | 22 | 1008.8 |
| 20260902041305 | 67 | 316 | 7.0 | 10.0 | 0.00 | 0.00 | 0.00 | 22 | 1008.7 |
| 20260902041205 | 67 | 316 | 7.0 | 10.0 | 0.00 | 0.00 | 0.00 | 22 | 1008.6 |
| 20260902041106 | 67 | 316 | 7.0 | 10.0 | 0.00 | 0.00 | 0.00 | 22 | 1008.6 |
| 20260902041005 | 67 | 316 | 7.0 | 10.0 | 0.00 | 0.00 | 0.00 | 22 | 1008.6 |
| 20260902040906 | 67 | 316 | 7.0 | 10.0 | 0.00 | 0.00 | 0.00 | 22 | 1008.6 |
| 20260902040805 | 67 | 316 | 7.0 | 10.0 | 0.00 | 0.00 | 0.00 | 22 | 1008.5 |
| 20260902040705 | 67 | 316 | 7.0 | 10.0 | 0.00 | 0.00 | 0.00 | 22 | 1008.6 |
| 20260902040606 | 67 | 316 | 7.0 | 10.0 | 0.00 | 0.00 | 0.00 | 22 | 1008.6 |
| 20260902040505 | 67 | 316 | 7.0 | 10.0 | 0.00 | 0.00 | 0.00 | 22 | 1008.6 |
| 20260902040405 | 67 | 316 | 7.0 | 10.0 | 0.00 | 0.00 | 0.00 | 22 | 1008.6 |
| 20260902040305 | 67 | 316 | 7.0 | 10.0 | 0.00 | 0.00 | 0.00 | 22 | 1008.5 |
| 20260902040206 | 67 | 316 | 7.0 | 10.0 | 0.00 | 0.00 | 0.00 | 22 | 1008.5 |
| 20260902040105 | 67 | 316 | 7.0 | 10.0 | 0.00 | 0.00 | 0.00 | 22 | 1008.5 |
| 20260902040006 | 67 | 316 | 7.0 | 10.0 | 0.00 | 0.00 | 0.00 | 22 | 1008.4 |
| 20260902035905 | 67 | 316 | 7.0 | 10.0 | 0.00 | 0.00 | 0.00 | 22 | 1008.4 |
| 20260902035806 | 67 | 316 | 7.0 | 10.0 | 0.00 | 0.00 | 0.00 | 22 | 1008.4 |
| 20260902035705 | 67 | 316 | 7.0 | 10.0 | 0.00 | 0.00 | 0.00 | 22 | 1008.4 |
| 20260902035605 | 67 | 316 | 7.0 | 10.0 | 0.00 | 0.00 | 0.00 | 22 | 1008.4 |
| 20260902035506 | 67 | 316 | 7.0 | 10.0 | 0.00 | 0.00 | 0.00 | 22 | 1008.3 |
| 20260902035405 | 67 | 316 | 7.0 | 10.0 | 0.00 | 0.00 | 0.00 | 22 | 1008.4 |
| 20260902035306 | 67 | 316 | 7.0 | 10.0 | 0.00 | 0.00 | 0.00 | 22 | 1008.4 |
| 20260902034805 | 67 | 316 | 7.0 | 10.0 | 0.00 | 0.00 | 0.00 | 22 | 1008.3 |
| 20260902034706 | 67 | 316 | 7.0 | 10.0 | 0.00 | 0.00 | 0.00 | 22 | 1008.2 |
| 20260902034605 | 67 | 316 | 7.0 | 10.0 | 0.00 | 0.00 | 0.00 | 22 | 1008.3 |
| 20260902034505 | 67 | 316 | 7.0 | 10.0 | 0.00 | 0.00 | 0.00 | 22 | 1008.3 |
| 20260902034406 | 67 | 316 | 7.0 | 10.0 | 0.00 | 0.00 | 0.00 | 22 | 1008.2 |
| 20260902034205 | 67 | 316 | 7.0 | 10.0 | 0.00 | 0.00 | 0.00 | 22 | 1008.3 |
| 20260902034106 | 67 | 316 | 7.0 | 10.0 | 0.00 | 0.00 | 0.00 | 22 | 1008.2 |
| 20260902034005 | 67 | 316 | 7.0 | 10.0 | 0.00 | 0.00 | 0.00 | 22 | 1008.1 |
| 20260902033906 | 67 | 316 | 7.0 | 10.0 | 0.00 | 0.00 | 0.00 | 22 | 1008.2 |
| 20260902033805 | 67 | 316 | 7.0 | 10.0 | 0.00 | 0.00 | 0.00 | 22 | 1008.2 |
| 20260902033705 | 67 | 316 | 7.0 | 10.0 | 0.00 | 0.00 | 0.00 | 22 | 1008.1 |
| 20260902033605 | 67 | 316 | 7.0 | 10.0 | 0.00 | 0.00 | 0.00 | 22 | 1008.2 |
| 20260902033505 | 67 | 316 | 7.0 | 10.0 | 0.00 | 0.00 | 0.00 | 22 | 1008.0 |
| 20260902033405 | 67 | 316 | 7.0 | 10.0 | 0.00 | 0.00 | 0.00 | 22 | 1008.2 |
| 20260902033305 | 67 | 316 | 7.0 | 10.0 | 0.00 | 0.00 | 0.00 | 22 | 1008.1 |
| 20260902033205 | 67 | 316 | 7.0 | 10.0 | 0.00 | 0.00 | 0.00 | 22 | 1008.1 |
| 20260902033106 | 67 | 319 | 7.0 | 10.0 | 0.00 | 0.00 | 0.00 | 22 | 1008.1 |
| 20260902033005 | 67 | 323 | 7.0 | 10.0 | 0.00 | 0.00 | 0.00 | 22 | 1008.1 |
| 20260902032906 | 67 | 327 | 7.0 | 10.0 | 0.00 | 0.00 | 0.00 | 22 | 1008.1 |
| 20260902032805 | 67 | 331 | 7.0 | 10.0 | 0.00 | 0.00 | 0.00 | 22 | 1008.1 |
| 20260902032706 | 67 | 329 | 7.0 | 10.0 | 0.00 | 0.00 | 0.00 | 22 | 1008.1 |
| 20260902032605 | 67 | 323 | 7.0 | 12.0 | 0.00 | 0.00 | 0.00 | 22 | 1008.0 |
| 20260902032505 | 67 | 316 | 7.0 | 12.0 | 0.00 | 0.00 | 0.00 | 22 | 1007.9 |
| 20260902032406 | 67 | 323 | 7.0 | 12.0 | 0.00 | 0.00 | 0.00 | 22 | 1008.1 |
| 20260902032306 | 67 | 331 | 7.0 | 13.0 | 0.00 | 0.00 | 0.00 | 22 | 1007.9 |
| 20260902032206 | 67 | 326 | 6.0 | 13.0 | 0.00 | 0.00 | 0.00 | 22 | 1008.0 |
| 20260902032105 | 67 | 312 | 6.0 | 13.0 | 0.00 | 0.00 | 0.00 | 22 | 1008.0 |
| 20260902032006 | 67 | 311 | 5.0 | 13.0 | 0.00 | 0.00 | 0.00 | 21 | 1008.1 |
| 20260902031905 | 67 | 302 | 6.0 | 13.0 | 0.00 | 0.00 | 0.00 | 21 | 1008.0 |
| 20260902031806 | 67 | 284 | 6.0 | 13.0 | 0.00 | 0.00 | 0.00 | 21 | 1008.0 |
| 20260902031705 | 67 | 289 | 6.0 | 13.0 | 0.00 | 0.00 | 0.00 | 22 | 1008.0 |
| 20260902031605 | 67 | 300 | 9.0 | 13.0 | 0.00 | 0.00 | 0.00 | 22 | 1007.9 |
| 20260902031505 | 67 | 310 | 7.0 | 13.0 | 0.00 | 0.00 | 0.00 | 23 | 1007.9 |
| 20260902031405 | 67 | 308 | 8.0 | 13.0 | 0.00 | 0.00 | 0.00 | 23 | 1008.0 |
| 20260902031305 | 68 | 305 | 8.0 | 13.0 | 0.00 | 0.00 | 0.00 | 23 | 1007.9 |
| 20260902031205 | 68 | 310 | 8.0 | 12.0 | 0.00 | 0.00 | 0.00 | 23 | 1008.0 |
| 20260902031105 | 68 | 320 | 8.0 | 12.0 | 0.00 | 0.00 | 0.00 | 23 | 1007.8 |
| 20260902031006 | 68 | 318 | 6.0 | 12.0 | 0.00 | 0.00 | 0.00 | 23 | 1007.8 |
| 20260902030905 | 68 | 321 | 7.0 | 12.0 | 0.00 | 0.00 | 0.00 | 23 | 1007.9 |
| 20260902030805 | 68 | 329 | 8.0 | 19.0 | 0.00 | 0.00 | 0.00 | 23 | 1007.9 |
| 20260902030706 | 69 | 326 | 8.0 | 19.0 | 0.00 | 0.00 | 0.00 | 21 | 1007.8 |
| 20260902030605 | 69 | 314 | 8.0 | 19.0 | 0.00 | 0.00 | 0.00 | 21 | 1007.7 |
| 20260902030506 | 69 | 302 | 8.0 | 19.0 | 0.00 | 0.00 | 0.00 | 21 | 1007.6 |
| 20260902030405 | 69 | 287 | 8.0 | 19.0 | 0.00 | 0.00 | 0.00 | 21 | 1007.7 |
| 20260902030305 | 69 | 274 | 8.0 | 19.0 | 0.00 | 0.00 | 0.00 | 21 | 1007.9 |
| 20260902030205 | 69 | 262 | 8.0 | 19.0 | 0.00 | 0.00 | 0.00 | 21 | 1007.7 |
| 20260902030105 | 69 | 251 | 8.0 | 19.0 | 0.00 | 0.00 | 0.00 | 21 | 1007.7 |
| 20260902030005 | 69 | 242 | 8.0 | 19.0 | 0.00 | 0.00 | 0.00 | 21 | 1007.7 |
| 20260902025905 | 69 | 237 | 8.0 | 19.0 | 0.00 | 0.00 | 0.00 | 20 | 1007.6 |
| 20260902025805 | 69 | 233 | 12.0 | 19.0 | 0.00 | 0.00 | 0.00 | 19 | 1007.6 |
| 20260902025705 | 69 | 237 | 9.0 | 20.0 | 0.00 | 0.00 | 0.00 | 22 | 1007.7 |
| 20260902025605 | 69 | 236 | 9.0 | 20.0 | 0.00 | 0.00 | 0.00 | 21 | 1007.6 |
| 20260902025505 | 69 | 238 | 8.0 | 20.0 | 0.00 | 0.00 | 0.00 | 21 | 1007.6 |
| 20260902025405 | 69 | 243 | 8.0 | 20.0 | 0.00 | 0.00 | 0.00 | 20 | 1007.6 |
| 20260902025306 | 69 | 244 | 8.0 | 20.0 | 0.00 | 0.00 | 0.00 | 21 | 1007.6 |
| 20260902025205 | 69 | 249 | 9.0 | 20.0 | 0.00 | 0.00 | 0.00 | 21 | 1007.6 |
| 20260902025106 | 69 | 254 | 12.0 | 20.0 | 0.00 | 0.00 | 0.00 | 21 | 1007.5 |
| 20260902025005 | 69 | 255 | 11.0 | 20.0 | 0.00 | 0.00 | 0.00 | 21 | 1007.4 |
| 20260902024905 | 69 | 261 | 14.0 | 20.0 | 0.00 | 0.00 | 0.00 | 22 | 1007.5 |
| 20260902024805 | 69 | 260 | 13.0 | 20.0 | 0.00 | 0.00 | 0.00 | 21 | 1007.4 |
| 20260902024705 | 69 | 253 | 11.0 | 18.0 | 0.00 | 0.00 | 0.00 | 22 | 1007.4 |
| 20260902024606 | 69 | 252 | 11.0 | 18.0 | 0.00 | 0.00 | 0.00 | 22 | 1007.5 |
| 20260902024305 | 70 | 243 | 11.0 | 18.0 | 0.00 | 0.00 | 0.00 | 19 | 1007.4 |
| 20260902024205 | 70 | 237 | 8.0 | 18.0 | 0.00 | 0.00 | 0.00 | 18 | 1007.3 |
| 20260902024105 | 70 | 233 | 13.0 | 18.0 | 0.00 | 0.00 | 0.00 | 18 | 1007.4 |
| 20260902024005 | 70 | 231 | 11.0 | 18.0 | 0.00 | 0.00 | 0.00 | 17 | 1007.4 |
| 20260902023905 | 70 | 225 | 11.0 | 18.0 | 0.00 | 0.00 | 0.00 | 16 | 1007.4 |
| 20260902023805 | 70 | 225 | 11.0 | 18.0 | 0.00 | 0.00 | 0.00 | 14 | 1007.3 |
| 20260902023706 | 71 | 231 | 11.0 | 18.0 | 0.00 | 0.00 | 0.00 | 13 | 1007.3 |
| 20260902023605 | 71 | 232 | 11.0 | 20.0 | 0.00 | 0.00 | 0.00 | 13 | 1007.2 |
| 20260902023505 | 71 | 237 | 11.0 | 20.0 | 0.00 | 0.00 | 0.00 | 13 | 1007.3 |
| 20260902023405 | 71 | 237 | 11.0 | 20.0 | 0.00 | 0.00 | 0.00 | 13 | 1007.4 |
| 20260902023305 | 71 | 237 | 11.0 | 20.0 | 0.00 | 0.00 | 0.00 | 13 | 1007.3 |
| 20260902023205 | 71 | 237 | 11.0 | 20.0 | 0.00 | 0.00 | 0.00 | 13 | 1007.3 |
| 20260902023105 | 71 | 238 | 11.0 | 20.0 | 0.00 | 0.00 | 0.00 | 13 | 1007.3 |
| 20260902023005 | 71 | 238 | 11.0 | 20.0 | 0.00 | 0.00 | 0.00 | 13 | 1007.2 |
| 20260902022906 | 71 | 245 | 13.0 | 20.0 | 0.00 | 0.00 | 0.00 | 13 | 1007.2 |
| 20260902022805 | 71 | 253 | 11.0 | 20.0 | 0.00 | 0.00 | 0.00 | 13 | 1007.2 |
| 20260902022706 | 71 | 245 | 11.0 | 20.0 | 0.00 | 0.00 | 0.00 | 13 | 1007.2 |
| 20260902022605 | 71 | 243 | 12.0 | 20.0 | 0.00 | 0.00 | 0.00 | 13 | 1007.1 |
| 20260902022506 | 71 | 237 | 10.0 | 19.0 | 0.00 | 0.00 | 0.00 | 13 | 1007.0 |
| 20260902022405 | 71 | 241 | 11.0 | 17.0 | 0.00 | 0.00 | 0.00 | 13 | 1007.1 |
| 20260902022306 | 71 | 245 | 10.0 | 17.0 | 0.00 | 0.00 | 0.00 | 13 | 1007.2 |
| 20260902022205 | 71 | 245 | 8.0 | 17.0 | 0.00 | 0.00 | 0.00 | 12 | 1007.2 |
| 20260902022105 | 71 | 244 | 11.0 | 17.0 | 0.00 | 0.00 | 0.00 | 12 | 1007.1 |
| 20260902022006 | 71 | 243 | 9.0 | 24.0 | 0.00 | 0.00 | 0.00 | 12 | 1007.1 |
| 20260902021905 | 71 | 239 | 10.0 | 24.0 | 0.00 | 0.00 | 0.00 | 12 | 1007.1 |
| 20260902021806 | 71 | 239 | 6.0 | 24.0 | 0.00 | 0.00 | 0.00 | 12 | 1007.1 |
| 20260902021305 | 72 | 235 | 11.0 | 24.0 | 0.00 | 0.00 | 0.00 | 10 | 1007.1 |
| 20260902021205 | 72 | 236 | 11.0 | 24.0 | 0.00 | 0.00 | 0.00 | 10 | 1007.0 |
| 20260902021105 | 72 | 244 | 17.0 | 24.0 | 0.00 | 0.00 | 0.00 | 10 | 1007.0 |
| 20260902021005 | 72 | 257 | 11.0 | 19.0 | 0.00 | 0.00 | 0.00 | 10 | 1006.9 |
| 20260902020905 | 72 | 259 | 10.0 | 19.0 | 0.00 | 0.00 | 0.00 | 10 | 1006.9 |
| 20260902020805 | 72 | 251 | 10.0 | 19.0 | 0.00 | 0.00 | 0.00 | 10 | 1006.9 |
| 20260902020305 | 73 | 252 | 8.0 | 17.0 | 0.00 | 0.00 | 0.00 | 10 | 1006.9 |
| 20260902020205 | 73 | 251 | 9.0 | 17.0 | 0.00 | 0.00 | 0.00 | 10 | 1006.8 |
| 20260902020105 | 73 | 244 | 12.0 | 17.0 | 0.00 | 0.00 | 0.00 | 10 | 1006.9 |
| 20260902020005 | 73 | 239 | 12.0 | 17.0 | 0.00 | 0.00 | 0.00 | 10 | 1006.9 |
| 20260902015905 | 73 | 237 | 11.0 | 17.0 | 0.00 | 0.00 | 0.00 | 10 | 1007.0 |
| 20260902015806 | 74 | 240 | 8.0 | 19.0 | 0.00 | 0.00 | 0.00 | 10 | 1006.9 |
| 20260902015705 | 74 | 243 | 11.0 | 19.0 | 0.00 | 0.00 | 0.00 | 10 | 1006.9 |
| 20260902015605 | 74 | 242 | 10.0 | 22.0 | 0.00 | 0.00 | 0.00 | 10 | 1006.9 |
| 20260902015505 | 75 | 238 | 9.0 | 22.0 | 0.00 | 0.00 | 0.00 | 10 | 1006.9 |
| 20260902015405 | 75 | 238 | 9.0 | 22.0 | 0.00 | 0.00 | 0.00 | 10 | 1007.0 |
| 20260902015306 | 75 | 244 | 11.0 | 22.0 | 0.00 | 0.00 | 0.00 | 10 | 1006.9 |
| 20260902015205 | 75 | 252 | 9.0 | 22.0 | 0.00 | 0.00 | 0.00 | 10 | 1007.0 |
| 20260902015105 | 75 | 255 | 11.0 | 22.0 | 0.00 | 0.00 | 0.00 | 10 | 1006.9 |
| 20260902015006 | 75 | 247 | 10.0 | 22.0 | 0.00 | 0.00 | 0.00 | 10 | 1006.9 |
| 20260902014905 | 75 | 242 | 13.0 | 22.0 | 0.00 | 0.00 | 0.00 | 10 | 1006.9 |
| 20260902014806 | 75 | 248 | 14.0 | 23.0 | 0.00 | 0.00 | 0.00 | 10 | 1007.0 |
| 20260902014705 | 75 | 250 | 16.0 | 23.0 | 0.00 | 0.00 | 0.00 | 10 | 1006.9 |
| 20260902014505 | 76 | 246 | 14.0 | 23.0 | 0.00 | 0.00 | 0.00 | 10 | 1006.9 |
| 20260902014405 | 76 | 245 | 11.0 | 23.0 | 0.00 | 0.00 | 0.00 | 10 | 1006.9 |
| 20260902014305 | 76 | 234 | 11.0 | 23.0 | 0.00 | 0.00 | 0.00 | 10 | 1006.9 |
| 20260902014205 | 76 | 227 | 14.0 | 23.0 | 0.00 | 0.00 | 0.00 | 10 | 1006.9 |
| 20260902014105 | 76 | 224 | 13.0 | 23.0 | 0.00 | 0.00 | 0.00 | 10 | 1006.9 |
| 20260902013905 | 76 | 232 | 13.0 | 23.0 | 0.00 | 0.00 | 0.00 | 10 | 1007.0 |
| 20260902013805 | 76 | 223 | 13.0 | 21.0 | 0.00 | 0.00 | 0.00 | 10 | 1006.9 |
| 20260902013705 | 76 | 218 | 15.0 | 25.0 | 0.00 | 0.00 | 0.00 | 10 | 1006.9 |
| 20260902013605 | 76 | 222 | 11.0 | 25.0 | 0.00 | 0.00 | 0.00 | 10 | 1006.9 |
| 20260902013505 | 77 | 227 | 13.0 | 25.0 | 0.00 | 0.00 | 0.00 | 10 | 1006.7 |
| 20260902013405 | 77 | 228 | 11.0 | 25.0 | 0.00 | 0.00 | 0.00 | 10 | 1006.9 |
| 20260902013305 | 77 | 230 | 11.0 | 25.0 | 0.00 | 0.00 | 0.00 | 10 | 1006.9 |
| 20260902013205 | 77 | 233 | 11.0 | 25.0 | 0.00 | 0.00 | 0.00 | 10 | 1006.8 |
| 20260902013105 | 77 | 238 | 14.0 | 25.0 | 0.00 | 0.00 | 0.00 | 10 | 1006.9 |
| 20260902013006 | 77 | 239 | 14.0 | 25.0 | 0.00 | 0.00 | 0.00 | 10 | 1006.8 |
| 20260902012805 | 77 | 242 | 13.0 | 25.0 | 0.00 | 0.00 | 0.00 | 10 | 1006.9 |
| 20260902012706 | 77 | 249 | 13.0 | 21.0 | 0.00 | 0.00 | 0.00 | 10 | 1006.8 |
| 20260902012605 | 78 | 243 | 15.0 | 21.0 | 0.00 | 0.00 | 0.00 | 10 | 1006.8 |
| 20260902012506 | 78 | 243 | 15.0 | 21.0 | 0.00 | 0.00 | 0.00 | 10 | 1006.9 |
| 20260902012405 | 78 | 244 | 10.0 | 21.0 | 0.00 | 0.00 | 0.00 | 10 | 1007.0 |
| 20260902012309 | 78 | 244 | 14.0 | 21.0 | 0.00 | 0.00 | 0.00 | 10 | 1007.0 |
| 20260902012205 | 78 | 242 | 12.0 | 21.0 | 0.00 | 0.00 | 0.00 | 10 | 1007.0 |
| 20260902012105 | 78 | 235 | 9.0 | 21.0 | 0.00 | 0.00 | 0.00 | 10 | 1006.9 |
| 20260902012005 | 78 | 235 | 12.0 | 21.0 | 0.00 | 0.00 | 0.00 | 10 | 1006.9 |
| 20260902011905 | 78 | 233 | 9.0 | 21.0 | 0.00 | 0.00 | 0.00 | 10 | 1007.0 |
| 20260902011805 | 78 | 230 | 11.0 | 21.0 | 0.00 | 0.00 | 0.00 | 10 | 1006.9 |
| 20260902011705 | 78 | 227 | 10.0 | 21.0 | 0.00 | 0.00 | 0.00 | 10 | 1006.9 |
| 20260902011605 | 78 | 226 | 10.0 | 21.0 | 0.00 | 0.00 | 0.00 | 10 | 1006.9 |
| 20260902011505 | 78 | 226 | 10.0 | 21.0 | 0.00 | 0.00 | 0.00 | 10 | 1006.9 |
| 20260902011405 | 78 | 228 | 11.0 | 21.0 | 0.00 | 0.00 | 0.00 | 10 | 1006.9 |
| 20260902011206 | 79 | 229 | 13.0 | 21.0 | 0.00 | 0.00 | 0.00 | 10 | 1006.9 |
| 20260902011105 | 79 | 233 | 12.0 | 21.0 | 0.00 | 0.00 | 0.00 | 10 | 1006.9 |
| 20260902011006 | 79 | 232 | 15.0 | 21.0 | 0.00 | 0.00 | 0.00 | 10 | 1006.8 |
| 20260902010905 | 79 | 229 | 11.0 | 21.0 | 0.00 | 0.00 | 0.00 | 10 | 1006.8 |
| 20260902010805 | 79 | 232 | 13.0 | 23.0 | 0.00 | 0.00 | 0.00 | 10 | 1006.8 |
| 20260902010705 | 79 | 238 | 14.0 | 23.0 | 0.00 | 0.00 | 0.00 | 10 | 1006.9 |
| 20260902010605 | 79 | 248 | 11.0 | 23.0 | 0.00 | 0.00 | 0.00 | 10 | 1006.9 |
| 20260902010504 | 79 | 250 | 11.0 | 23.0 | 0.00 | 0.00 | 0.00 | 10 | 1006.9 |
| 20260902010405 | 79 | 252 | 8.0 | 23.0 | 0.00 | 0.00 | 0.00 | 10 | 1006.8 |
| 20260902010306 | 79 | 251 | 14.0 | 23.0 | 0.00 | 0.00 | 0.00 | 10 | 1006.8 |
| 20260902010205 | 79 | 247 | 11.0 | 23.0 | 0.00 | 0.00 | 0.00 | 10 | 1006.8 |
| 20260902010105 | 79 | 242 | 13.0 | 23.0 | 0.00 | 0.00 | 0.00 | 10 | 1006.9 |
| 20260902010005 | 79 | 249 | 13.0 | 23.0 | 0.00 | 0.00 | 0.00 | 10 | 1006.8 |
| 20260902005905 | 79 | 249 | 15.0 | 23.0 | 0.00 | 0.00 | 0.00 | 10 | 1006.7 |
| 20260902005805 | 79 | 245 | 17.0 | 23.0 | 0.00 | 0.00 | 0.00 | 10 | 1006.7 |
| 20260902005705 | 79 | 237 | 12.0 | 22.0 | 0.00 | 0.00 | 0.00 | 10 | 1006.8 |
| 20260902005605 | 78 | 233 | 14.0 | 22.0 | 0.00 | 0.00 | 0.00 | 10 | 1006.8 |
| 20260902005505 | 78 | 232 | 11.0 | 22.0 | 0.00 | 0.00 | 0.00 | 10 | 1006.8 |
| 20260902005405 | 78 | 227 | 12.0 | 22.0 | 0.00 | 0.00 | 0.00 | 10 | 1006.8 |
| 20260902005306 | 78 | 228 | 13.0 | 22.0 | 0.00 | 0.00 | 0.00 | 10 | 1006.9 |
| 20260902005205 | 78 | 230 | 14.0 | 22.0 | 0.00 | 0.00 | 0.00 | 10 | 1006.8 |
| 20260902004605 | 77 | 242 | 9.0 | 22.0 | 0.00 | 0.00 | 0.00 | 10 | 1006.8 |
| 20260902004505 | 77 | 239 | 9.0 | 22.0 | 0.00 | 0.00 | 0.00 | 10 | 1006.9 |
| 20260902004406 | 77 | 236 | 14.0 | 22.0 | 0.00 | 0.00 | 0.00 | 10 | 1006.7 |
| 20260902004305 | 77 | 236 | 12.0 | 22.0 | 0.00 | 0.00 | 0.00 | 10 | 1006.7 |
| 20260902004206 | 77 | 231 | 14.0 | 22.0 | 0.00 | 0.00 | 0.00 | 10 | 1006.9 |
| 20260902004105 | 77 | 227 | 16.0 | 22.0 | 0.00 | 0.00 | 0.00 | 10 | 1006.8 |
| 20260902004005 | 77 | 221 | 14.0 | 23.0 | 0.00 | 0.00 | 0.00 | 10 | 1006.8 |
| 20260902003905 | 77 | 223 | 14.0 | 23.0 | 0.00 | 0.00 | 0.00 | 10 | 1006.8 |
| 20260902003805 | 77 | 227 | 15.0 | 23.0 | 0.00 | 0.00 | 0.00 | 10 | 1006.8 |
| 20260902003705 | 77 | 225 | 11.0 | 23.0 | 0.00 | 0.00 | 0.00 | 10 | 1006.7 |
| 20260902003605 | 77 | 225 | 11.0 | 23.0 | 0.00 | 0.00 | 0.00 | 10 | 1006.7 |
| 20260902003505 | 78 | 230 | 11.0 | 23.0 | 0.00 | 0.00 | 0.00 | 10 | 1006.7 |
| 20260902003406 | 78 | 240 | 8.0 | 23.0 | 0.00 | 0.00 | 0.00 | 10 | 1006.7 |
| 20260902003305 | 78 | 248 | 12.0 | 23.0 | 0.00 | 0.00 | 0.00 | 10 | 1006.7 |
| 20260902003205 | 78 | 259 | 13.0 | 23.0 | 0.00 | 0.00 | 0.00 | 10 | 1006.7 |
| 20260902003105 | 78 | 260 | 15.0 | 24.0 | 0.00 | 0.00 | 0.00 | 10 | 1006.8 |
| 20260902002905 | 78 | 257 | 15.0 | 24.0 | 0.00 | 0.00 | 0.00 | 10 | 1006.7 |
| 20260902002805 | 78 | 248 | 15.0 | 24.0 | 0.00 | 0.00 | 0.00 | 10 | 1006.6 |
| 20260902002706 | 78 | 248 | 16.0 | 24.0 | 0.00 | 0.00 | 0.00 | 10 | 1006.7 |
| 20260902002605 | 78 | 251 | 14.0 | 24.0 | 0.00 | 0.00 | 0.00 | 10 | 1006.7 |
| 20260902002505 | 78 | 254 | 11.0 | 24.0 | 0.00 | 0.00 | 0.00 | 10 | 1006.7 |
| 20260902002405 | 78 | 250 | 11.0 | 24.0 | 0.00 | 0.00 | 0.00 | 10 | 1006.8 |
| 20260902002306 | 78 | 241 | 15.0 | 24.0 | 0.00 | 0.00 | 0.00 | 10 | 1006.8 |
| 20260902002205 | 78 | 232 | 13.0 | 24.0 | 0.00 | 0.00 | 0.00 | 10 | 1006.7 |
| 20260902002105 | 78 | 227 | 18.0 | 24.0 | 0.00 | 0.00 | 0.00 | 10 | 1006.6 |
| 20260902002005 | 78 | 227 | 17.0 | 22.0 | 0.00 | 0.00 | 0.00 | 10 | 1006.7 |
| 20260902001905 | 78 | 227 | 11.0 | 19.0 | 0.00 | 0.00 | 0.00 | 10 | 1006.8 |
| 20260902001805 | 78 | 227 | 12.0 | 21.0 | 0.00 | 0.00 | 0.00 | 10 | 1006.8 |
| 20260902001705 | 78 | 227 | 12.0 | 21.0 | 0.00 | 0.00 | 0.00 | 10 | 1006.8 |
| 20260902001605 | 78 | 224 | 10.0 | 21.0 | 0.00 | 0.00 | 0.00 | 10 | 1006.8 |
| 20260902001505 | 78 | 224 | 10.0 | 21.0 | 0.00 | 0.00 | 0.00 | 10 | 1006.8 |
| 20260902001405 | 78 | 226 | 9.0 | 21.0 | 0.00 | 0.00 | 0.00 | 10 | 1006.8 |
| 20260902001305 | 78 | 223 | 9.0 | 21.0 | 0.00 | 0.00 | 0.00 | 10 | 1006.8 |
| 20260902001205 | 78 | 226 | 10.0 | 21.0 | 0.00 | 0.00 | 0.00 | 10 | 1006.9 |
| 20260902001105 | 78 | 232 | 10.0 | 21.0 | 0.00 | 0.00 | 0.00 | 10 | 1006.7 |
| 20260902001005 | 78 | 240 | 11.0 | 21.0 | 0.00 | 0.00 | 0.00 | 10 | 1006.7 |
| 20260902000905 | 78 | 253 | 14.0 | 21.0 | 0.00 | 0.00 | 0.00 | 10 | 1006.7 |
| 20260902000806 | 78 | 256 | 15.0 | 21.0 | 0.00 | 0.00 | 0.00 | 10 | 1006.8 |
| 20260902000705 | 78 | 269 | 11.0 | 21.0 | 0.00 | 0.00 | 0.00 | 10 | 1006.8 |
| 20260902000605 | 78 | 269 | 12.0 | 21.0 | 0.00 | 0.00 | 0.00 | 10 | 1006.8 |
| 20260902000406 | 78 | 274 | 11.0 | 21.0 | 0.00 | 0.00 | 0.00 | 10 | 1006.7 |
| 20260902000305 | 78 | 275 | 11.0 | 21.0 | 0.00 | 0.00 | 0.00 | 10 | 1006.7 |
| 20260902000205 | 78 | 271 | 11.0 | 21.0 | 0.00 | 0.00 | 0.00 | 10 | 1006.7 |
| 20260902000105 | 78 | 261 | 11.0 | 21.0 | 0.00 | 0.00 | 0.00 | 10 | 1006.7 |
| 20260902000005 | 78 | 249 | 11.0 | 21.0 | 0.00 | 0.00 | 0.00 | 10 | 1006.7 |
| 20260901235905 | 79 | 238 | 13.0 | 21.0 | 0.00 | 0.00 | 0.00 | 10 | 1006.7 |
| 20260901235805 | 79 | 237 | 13.0 | 21.0 | 0.00 | 0.00 | 0.00 | 10 | 1006.7 |
| 20260901235705 | 79 | 231 | 10.0 | 23.0 | 0.00 | 0.00 | 0.00 | 10 | 1006.8 |
| 20260901235605 | 79 | 231 | 11.0 | 23.0 | 0.00 | 0.00 | 0.00 | 10 | 1006.8 |
| 20260901235505 | 79 | 231 | 12.0 | 23.0 | 0.00 | 0.00 | 0.00 | 10 | 1006.6 |
| 20260901235405 | 79 | 230 | 15.0 | 23.0 | 0.00 | 0.00 | 0.00 | 10 | 1006.8 |
| 20260901235307 | 79 | 229 | 11.0 | 23.0 | 0.00 | 0.00 | 0.00 | 10 | 1006.8 |
| 20260901235205 | 79 | 241 | 12.0 | 23.0 | 0.00 | 0.00 | 0.00 | 10 | 1006.8 |
| 20260901235105 | 79 | 246 | 11.0 | 23.0 | 0.00 | 0.00 | 0.00 | 10 | 1006.8 |
| 20260901235005 | 79 | 253 | 14.0 | 23.0 | 0.00 | 0.00 | 0.00 | 10 | 1006.8 |
| 20260901234905 | 79 | 254 | 11.0 | 23.0 | 0.00 | 0.00 | 0.00 | 10 | 1006.8 |
| 20260901234805 | 79 | 255 | 12.0 | 23.0 | 0.00 | 0.00 | 0.00 | 10 | 1006.8 |
| 20260901234705 | 80 | 257 | 16.0 | 23.0 | 0.00 | 0.00 | 0.00 | 10 | 1006.8 |
| 20260901234605 | 80 | 251 | 13.0 | 23.0 | 0.00 | 0.00 | 0.00 | 10 | 1006.8 |
| 20260901234505 | 80 | 240 | 13.0 | 23.0 | 0.00 | 0.00 | 0.00 | 10 | 1006.8 |
| 20260901234405 | 80 | 237 | 9.0 | 23.0 | 0.00 | 0.00 | 0.00 | 10 | 1006.7 |
| 20260901234305 | 80 | 241 | 13.0 | 23.0 | 0.00 | 0.00 | 0.00 | 10 | 1006.8 |
| 20260901234205 | 80 | 235 | 11.0 | 23.0 | 0.00 | 0.00 | 0.00 | 10 | 1006.7 |
| 20260901234105 | 80 | 233 | 11.0 | 23.0 | 0.00 | 0.00 | 0.00 | 10 | 1006.8 |
| 20260901234006 | 80 | 226 | 14.0 | 23.0 | 0.00 | 0.00 | 0.00 | 10 | 1006.7 |
| 20260901233905 | 80 | 225 | 11.0 | 24.0 | 0.00 | 0.00 | 0.00 | 10 | 1006.8 |
| 20260901233806 | 80 | 225 | 14.0 | 24.0 | 0.00 | 0.00 | 0.00 | 10 | 1006.8 |
| 20260901233705 | 81 | 231 | 17.0 | 24.0 | 0.00 | 0.00 | 0.00 | 10 | 1006.7 |
| 20260901233605 | 81 | 244 | 15.0 | 24.0 | 0.00 | 0.00 | 0.00 | 10 | 1006.7 |
| 20260901233505 | 81 | 254 | 13.0 | 24.0 | 0.00 | 0.00 | 0.00 | 10 | 1006.7 |
| 20260901233405 | 81 | 258 | 11.0 | 24.0 | 0.00 | 0.00 | 0.00 | 10 | 1006.7 |
| 20260901233305 | 81 | 253 | 11.0 | 24.0 | 0.00 | 0.00 | 0.00 | 10 | 1006.6 |
| 20260901233205 | 81 | 250 | 15.0 | 24.0 | 0.00 | 0.00 | 0.00 | 10 | 1006.7 |
| 20260901233105 | 82 | 245 | 15.0 | 24.0 | 0.00 | 0.00 | 0.00 | 10 | 1006.8 |
| 20260901232605 | 82 | 237 | 10.0 | 24.0 | 0.00 | 0.00 | 0.00 | 10 | 1006.8 |
| 20260901232505 | 82 | 232 | 14.0 | 24.0 | 0.00 | 0.00 | 0.00 | 10 | 1006.7 |
| 20260901232405 | 82 | 229 | 12.0 | 24.0 | 0.00 | 0.00 | 0.00 | 10 | 1006.7 |
| 20260901232306 | 82 | 229 | 14.0 | 22.0 | 0.00 | 0.00 | 0.00 | 10 | 1006.6 |
| 20260901232205 | 82 | 229 | 14.0 | 22.0 | 0.00 | 0.00 | 0.00 | 10 | 1006.6 |
| 20260901232105 | 82 | 229 | 14.0 | 22.0 | 0.00 | 0.00 | 0.00 | 10 | 1006.8 |
| 20260901232006 | 82 | 234 | 15.0 | 22.0 | 0.00 | 0.00 | 0.00 | 10 | 1006.7 |
| 20260901231905 | 83 | 236 | 13.0 | 22.0 | 0.00 | 0.00 | 0.00 | 10 | 1006.8 |
| 20260901231806 | 83 | 237 | 12.0 | 22.0 | 0.00 | 0.00 | 0.00 | 10 | 1006.8 |
| 20260901231705 | 83 | 234 | 15.0 | 22.0 | 0.00 | 0.00 | 0.00 | 10 | 1006.7 |
| 20260901231605 | 82 | 234 | 11.0 | 20.0 | 0.00 | 0.00 | 0.00 | 10 | 1006.6 |
| 20260901231505 | 82 | 238 | 11.0 | 23.0 | 0.00 | 0.00 | 0.00 | 10 | 1006.7 |
| 20260901225205 | 84 | 240 | 13.0 | 28.0 | 0.00 | 0.00 | 0.00 | 10 | 1006.7 |
| 20260901225105 | 84 | 243 | 9.0 | 28.0 | 0.00 | 0.00 | 0.00 | 10 | 1006.7 |
| 20260901225005 | 84 | 251 | 12.0 | 28.0 | 0.00 | 0.00 | 0.00 | 10 | 1006.7 |
| 20260901224905 | 84 | 253 | 11.0 | 28.0 | 0.00 | 0.00 | 0.00 | 10 | 1006.7 |
| 20260901224805 | 84 | 254 | 13.0 | 28.0 | 0.00 | 0.00 | 0.00 | 10 | 1006.7 |
| 20260901224705 | 84 | 261 | 21.0 | 28.0 | 0.00 | 0.00 | 0.00 | 10 | 1006.7 |
| 20260901224605 | 84 | 260 | 13.0 | 24.0 | 0.00 | 0.00 | 0.00 | 10 | 1006.7 |
| 20260901224405 | 84 | 240 | 11.0 | 24.0 | 0.00 | 0.00 | 0.00 | 10 | 1006.6 |
| 20260901224305 | 84 | 239 | 11.0 | 24.0 | 0.00 | 0.00 | 0.00 | 10 | 1006.7 |
| 20260901224205 | 84 | 237 | 14.0 | 24.0 | 0.00 | 0.00 | 0.00 | 10 | 1006.7 |
| 20260901224105 | 84 | 233 | 16.0 | 24.0 | 0.00 | 0.00 | 0.00 | 10 | 1006.6 |
| 20260901224005 | 84 | 227 | 16.0 | 23.0 | 0.00 | 0.00 | 0.00 | 10 | 1006.6 |
| 20260901223905 | 84 | 225 | 11.0 | 21.0 | 0.00 | 0.00 | 0.00 | 10 | 1006.4 |
| 20260901223805 | 84 | 229 | 7.0 | 21.0 | 0.00 | 0.00 | 0.00 | 10 | 1006.6 |
| 20260901223704 | 84 | 235 | 8.0 | 21.0 | 0.00 | 0.00 | 0.00 | 10 | 1006.6 |
| 20260901223605 | 84 | 241 | 11.0 | 21.0 | 0.00 | 0.00 | 0.00 | 10 | 1006.6 |
| 20260901223505 | 84 | 246 | 14.0 | 21.0 | 0.00 | 0.00 | 0.00 | 10 | 1006.7 |
| 20260901223405 | 84 | 251 | 10.0 | 21.0 | 0.00 | 0.00 | 0.00 | 10 | 1006.7 |
| 20260901223305 | 84 | 252 | 12.0 | 21.0 | 0.00 | 0.00 | 0.00 | 10 | 1006.7 |
| 20260901223205 | 84 | 249 | 13.0 | 21.0 | 0.00 | 0.00 | 0.00 | 10 | 1006.6 |
| 20260901223105 | 84 | 249 | 11.0 | 21.0 | 0.00 | 0.00 | 0.00 | 10 | 1006.6 |
| 20260901223006 | 84 | 253 | 11.0 | 21.0 | 0.00 | 0.00 | 0.00 | 10 | 1006.5 |
| 20260901222905 | 84 | 250 | 11.0 | 21.0 | 0.00 | 0.00 | 0.00 | 10 | 1006.6 |
| 20260901222805 | 84 | 249 | 12.0 | 21.0 | 0.00 | 0.00 | 0.00 | 10 | 1006.6 |
| 20260901222705 | 84 | 245 | 13.0 | 20.0 | 0.00 | 0.00 | 0.00 | 10 | 1006.7 |
| 20260901222605 | 84 | 237 | 11.0 | 20.0 | 0.00 | 0.00 | 0.00 | 10 | 1006.7 |
| 20260901222505 | 84 | 233 | 11.0 | 20.0 | 0.00 | 0.00 | 0.00 | 10 | 1006.7 |
| 20260901222405 | 84 | 229 | 11.0 | 20.0 | 0.00 | 0.00 | 0.00 | 10 | 1006.7 |
| 20260901222306 | 83 | 230 | 13.0 | 20.0 | 0.00 | 0.00 | 0.00 | 10 | 1006.6 |
| 20260901222205 | 83 | 243 | 14.0 | 19.0 | 0.00 | 0.00 | 0.00 | 10 | 1006.8 |
| 20260901222105 | 84 | 246 | 11.0 | 19.0 | 0.00 | 0.00 | 0.00 | 10 | 1006.7 |
| 20260901222005 | 84 | 242 | 10.0 | 17.0 | 0.00 | 0.00 | 0.00 | 10 | 1006.7 |
| 20260901221905 | 84 | 250 | 9.0 | 16.0 | 0.00 | 0.00 | 0.00 | 10 | 1006.8 |
| 20260901221805 | 84 | 248 | 8.0 | 16.0 | 0.00 | 0.00 | 0.00 | 10 | 1006.8 |
| 20260901221705 | 84 | 245 | 7.0 | 18.0 | 0.00 | 0.00 | 0.00 | 10 | 1006.9 |
| 20260901221605 | 84 | 244 | 10.0 | 18.0 | 0.00 | 0.00 | 0.00 | 10 | 1006.9 |
| 20260901221505 | 84 | 250 | 10.0 | 18.0 | 0.00 | 0.00 | 0.00 | 10 | 1006.9 |
| 20260901221405 | 85 | 249 | 10.0 | 18.0 | 0.00 | 0.00 | 0.00 | 10 | 1006.9 |
| 20260901221305 | 85 | 240 | 11.0 | 18.0 | 0.00 | 0.00 | 0.00 | 10 | 1006.9 |
| 20260901221205 | 85 | 229 | 9.0 | 18.0 | 0.00 | 0.00 | 0.00 | 10 | 1007.0 |
| 20260901220605 | 84 | 216 | 10.0 | 19.0 | 0.00 | 0.00 | 0.00 | 10 | 1007.0 |
| 20260901220505 | 84 | 210 | 10.0 | 19.0 | 0.00 | 0.00 | 0.00 | 10 | 1006.9 |
| 20260901220405 | 84 | 206 | 10.0 | 19.0 | 0.00 | 0.00 | 0.00 | 10 | 1006.9 |
| 20260901220305 | 85 | 210 | 9.0 | 19.0 | 0.00 | 0.00 | 0.00 | 10 | 1006.9 |
| 20260901220205 | 85 | 215 | 7.0 | 19.0 | 0.00 | 0.00 | 0.00 | 10 | 1007.0 |
| 20260901220105 | 85 | 222 | 11.0 | 19.0 | 0.00 | 0.00 | 0.00 | 10 | 1006.9 |
| 20260901220005 | 85 | 231 | 11.0 | 19.0 | 0.00 | 0.00 | 0.00 | 10 | 1006.9 |
| 20260901215904 | 85 | 233 | 10.0 | 19.0 | 0.00 | 0.00 | 0.00 | 10 | 1006.9 |
| 20260901215805 | 85 | 236 | 10.0 | 19.0 | 0.00 | 0.00 | 0.00 | 10 | 1007.0 |
| 20260901215705 | 85 | 234 | 11.0 | 17.0 | 0.00 | 0.00 | 0.00 | 10 | 1006.9 |
| 20260901215605 | 85 | 228 | 10.0 | 17.0 | 0.00 | 0.00 | 0.00 | 10 | 1007.0 |
| 20260901215505 | 85 | 232 | 10.0 | 17.0 | 0.00 | 0.00 | 0.00 | 10 | 1006.9 |
| 20260901215005 | 85 | 233 | 9.0 | 15.0 | 0.00 | 0.00 | 0.00 | 10 | 1007.0 |
| 20260901214905 | 85 | 239 | 8.0 | 15.0 | 0.00 | 0.00 | 0.00 | 10 | 1007.0 |
| 20260901214805 | 85 | 245 | 8.0 | 17.0 | 0.00 | 0.00 | 0.00 | 10 | 1007.0 |
| 20260901214705 | 85 | 250 | 6.0 | 17.0 | 0.00 | 0.00 | 0.00 | 10 | 1006.9 |
| 20260901214605 | 85 | 248 | 4.0 | 17.0 | 0.00 | 0.00 | 0.00 | 10 | 1007.0 |
| 20260901214505 | 84 | 248 | 9.0 | 17.0 | 0.00 | 0.00 | 0.00 | 10 | 1007.0 |
| 20260901213905 | 85 | 253 | 11.0 | 17.0 | 0.00 | 0.00 | 0.00 | 10 | 1007.0 |
| 20260901213805 | 84 | 255 | 6.0 | 15.0 | 0.00 | 0.00 | 0.00 | 10 | 1007.1 |
| 20260901213704 | 84 | 260 | 11.0 | 15.0 | 0.00 | 0.00 | 0.00 | 10 | 1007.0 |
| 20260901213605 | 84 | 259 | 8.0 | 15.0 | 0.00 | 0.00 | 0.00 | 10 | 1007.0 |
| 20260901213505 | 84 | 259 | 6.0 | 15.0 | 0.00 | 0.00 | 0.00 | 10 | 1007.0 |
| 20260901213404 | 84 | 248 | 6.0 | 16.0 | 0.00 | 0.00 | 0.00 | 10 | 1007.0 |
| 20260901213305 | 84 | 242 | 11.0 | 17.0 | 0.00 | 0.00 | 0.00 | 10 | 1007.1 |
| 20260901213205 | 84 | 241 | 7.0 | 17.0 | 0.00 | 0.00 | 0.00 | 10 | 1007.0 |
| 20260901213104 | 84 | 239 | 5.0 | 17.0 | 0.00 | 0.00 | 0.00 | 10 | 1007.0 |
| 20260901213005 | 84 | 240 | 8.0 | 17.0 | 0.00 | 0.00 | 0.00 | 10 | 1007.2 |
| 20260901212905 | 84 | 238 | 4.0 | 17.0 | 0.00 | 0.00 | 0.00 | 10 | 1007.2 |
| 20260901212806 | 84 | 232 | 8.0 | 17.0 | 0.00 | 0.00 | 0.00 | 10 | 1007.3 |
| 20260901212705 | 84 | 222 | 12.0 | 17.0 | 0.00 | 0.00 | 0.00 | 10 | 1007.2 |
| 20260901212605 | 84 | 222 | 8.0 | 17.0 | 0.00 | 0.00 | 0.00 | 10 | 1007.1 |
| 20260901212505 | 84 | 226 | 8.0 | 17.0 | 0.00 | 0.00 | 0.00 | 10 | 1007.2 |
| 20260901212405 | 85 | 240 | 11.0 | 17.0 | 0.00 | 0.00 | 0.00 | 10 | 1007.3 |
| 20260901212306 | 85 | 249 | 9.0 | 16.0 | 0.00 | 0.00 | 0.00 | 10 | 1007.2 |
| 20260901212205 | 85 | 256 | 8.0 | 17.0 | 0.00 | 0.00 | 0.00 | 10 | 1007.2 |
| 20260901211805 | 85 | 251 | 8.0 | 18.0 | 0.00 | 0.00 | 0.00 | 10 | 1007.1 |
| 20260901211704 | 85 | 249 | 8.0 | 18.0 | 0.00 | 0.00 | 0.00 | 10 | 1007.2 |
| 20260901211604 | 85 | 245 | 8.0 | 18.0 | 0.00 | 0.00 | 0.00 | 10 | 1007.2 |
| 20260901211505 | 85 | 248 | 8.0 | 18.0 | 0.00 | 0.00 | 0.00 | 10 | 1007.2 |
| 20260901211404 | 85 | 244 | 13.0 | 18.0 | 0.00 | 0.00 | 0.00 | 10 | 1007.3 |
| 20260901211305 | 85 | 245 | 11.0 | 20.0 | 0.00 | 0.00 | 0.00 | 10 | 1007.2 |
| 20260901211204 | 85 | 249 | 11.0 | 20.0 | 0.00 | 0.00 | 0.00 | 10 | 1007.2 |
| 20260901211104 | 85 | 259 | 8.0 | 20.0 | 0.00 | 0.00 | 0.00 | 10 | 1007.2 |
| 20260901211004 | 85 | 268 | 9.0 | 20.0 | 0.00 | 0.00 | 0.00 | 10 | 1007.2 |
| 20260901210905 | 85 | 277 | 12.0 | 20.0 | 0.00 | 0.00 | 0.00 | 10 | 1007.2 |
| 20260901210804 | 84 | 278 | 11.0 | 20.0 | 0.00 | 0.00 | 0.00 | 10 | 1007.3 |
| 20260901210605 | 85 | 274 | 8.0 | 20.0 | 0.00 | 0.00 | 0.00 | 10 | 1007.3 |
| 20260901210504 | 85 | 265 | 11.0 | 20.0 | 0.00 | 0.00 | 0.00 | 10 | 1007.3 |
| 20260901210404 | 85 | 263 | 15.0 | 20.0 | 0.00 | 0.00 | 0.00 | 10 | 1007.4 |
| 20260901210305 | 85 | 277 | 11.0 | 17.0 | 0.00 | 0.00 | 0.00 | 10 | 1007.3 |
| 20260901210204 | 85 | 274 | 11.0 | 17.0 | 0.00 | 0.00 | 0.00 | 10 | 1007.4 |
| 20260901210104 | 86 | 259 | 7.0 | 17.0 | 0.00 | 0.00 | 0.00 | 10 | 1007.4 |
| 20260901205604 | 85 | 243 | 10.0 | 17.0 | 0.00 | 0.00 | 0.00 | 10 | 1007.4 |
| 20260901205504 | 85 | 243 | 11.0 | 17.0 | 0.00 | 0.00 | 0.00 | 10 | 1007.5 |
| 20260901205405 | 85 | 243 | 9.0 | 17.0 | 0.00 | 0.00 | 0.00 | 10 | 1007.4 |
| 20260901205306 | 85 | 232 | 9.0 | 17.0 | 0.00 | 0.00 | 0.00 | 10 | 1007.4 |
| 20260901205205 | 85 | 231 | 9.0 | 17.0 | 0.00 | 0.00 | 0.00 | 10 | 1007.4 |
| 20260901205104 | 84 | 236 | 9.0 | 17.0 | 0.00 | 0.00 | 0.00 | 10 | 1007.5 |
| 20260901205004 | 84 | 236 | 8.0 | 18.0 | 0.00 | 0.00 | 0.00 | 10 | 1007.5 |
| 20260901204505 | 84 | 227 | 7.0 | 18.0 | 0.00 | 0.00 | 0.00 | 10 | 1007.6 |
| 20260901204404 | 84 | 228 | 6.0 | 18.0 | 0.00 | 0.00 | 0.00 | 10 | 1007.5 |
| 20260901204305 | 84 | 236 | 10.0 | 18.0 | 0.00 | 0.00 | 0.00 | 10 | 1007.5 |
| 20260901204204 | 84 | 236 | 12.0 | 18.0 | 0.00 | 0.00 | 0.00 | 10 | 1007.4 |
| 20260901204104 | 84 | 224 | 10.0 | 18.0 | 0.00 | 0.00 | 0.00 | 10 | 1007.6 |
| 20260901204005 | 84 | 224 | 11.0 | 18.0 | 0.00 | 0.00 | 0.00 | 10 | 1007.6 |
| 20260901203804 | 84 | 233 | 3.0 | 15.0 | 0.00 | 0.00 | 0.00 | 10 | 1007.6 |
| 20260901203705 | 84 | 239 | 4.0 | 15.0 | 0.00 | 0.00 | 0.00 | 10 | 1007.6 |
| 20260901203604 | 84 | 240 | 2.0 | 15.0 | 0.00 | 0.00 | 0.00 | 10 | 1007.7 |
| 20260901203504 | 84 | 239 | 6.0 | 15.0 | 0.00 | 0.00 | 0.00 | 10 | 1007.8 |
| 20260901203404 | 84 | 242 | 3.0 | 15.0 | 0.00 | 0.00 | 0.00 | 10 | 1007.7 |
| 20260901203304 | 84 | 238 | 4.0 | 15.0 | 0.00 | 0.00 | 0.00 | 10 | 1007.9 |
| 20260901203204 | 84 | 239 | 3.0 | 15.0 | 0.00 | 0.00 | 0.00 | 10 | 1007.8 |
| 20260901203105 | 84 | 247 | 9.0 | 15.0 | 0.00 | 0.00 | 0.00 | 10 | 1007.8 |
| 20260901203004 | 84 | 250 | 9.0 | 15.0 | 0.00 | 0.00 | 0.00 | 10 | 1007.8 |
| 20260901202905 | 84 | 237 | 11.0 | 15.0 | 0.00 | 0.00 | 0.00 | 10 | 1007.7 |
| 20260901202804 | 84 | 232 | 11.0 | 14.0 | 0.00 | 0.00 | 0.00 | 10 | 1007.7 |
| 20260901202704 | 84 | 200 | 3.0 | 8.0 | 0.00 | 0.00 | 0.00 | 10 | 1007.7 |
| 20260901202105 | 83 | 207 | 5.0 | 15.0 | 0.00 | 0.00 | 0.00 | 10 | 1007.9 |
| 20260901202004 | 83 | 202 | 2.0 | 15.0 | 0.00 | 0.00 | 0.00 | 10 | 1007.8 |
| 20260901201905 | 83 | 209 | 2.0 | 15.0 | 0.00 | 0.00 | 0.00 | 10 | 1007.9 |
| 20260901201804 | 83 | 210 | 4.0 | 15.0 | 0.00 | 0.00 | 0.00 | 10 | 1008.0 |
| 20260901201705 | 83 | 215 | 5.0 | 16.0 | 0.00 | 0.00 | 0.00 | 10 | 1008.0 |
| 20260901201604 | 83 | 219 | 8.0 | 16.0 | 0.00 | 0.00 | 0.00 | 10 | 1008.0 |
| 20260901201504 | 83 | 228 | 8.0 | 16.0 | 0.00 | 0.00 | 0.00 | 10 | 1008.1 |
| 20260901201005 | 83 | 229 | 6.0 | 16.0 | 0.00 | 0.00 | 0.00 | 10 | 1008.1 |
| 20260901200904 | 83 | 229 | 7.0 | 16.0 | 0.00 | 0.00 | 0.00 | 10 | 1008.1 |
| 20260901200804 | 83 | 227 | 8.0 | 16.0 | 0.00 | 0.00 | 0.00 | 10 | 1008.1 |
| 20260901200704 | 84 | 230 | 9.0 | 16.0 | 0.00 | 0.00 | 0.00 | 10 | 1008.1 |
| 20260901200604 | 84 | 229 | 8.0 | 16.0 | 0.00 | 0.00 | 0.00 | 10 | 1008.1 |
| 20260901200005 | 83 | 237 | 9.0 | 16.0 | 0.00 | 0.00 | 0.00 | 10 | 1008.1 |
| 20260901195904 | 83 | 239 | 9.0 | 15.0 | 0.00 | 0.00 | 0.00 | 10 | 1008.1 |
| 20260901195805 | 83 | 243 | 8.0 | 15.0 | 0.00 | 0.00 | 0.00 | 10 | 1008.2 |
| 20260901195704 | 83 | 240 | 9.0 | 15.0 | 0.00 | 0.00 | 0.00 | 10 | 1008.3 |
| 20260901195605 | 83 | 245 | 8.0 | 15.0 | 0.00 | 0.00 | 0.00 | 10 | 1008.2 |
| 20260901195504 | 83 | 239 | 8.0 | 15.0 | 0.00 | 0.00 | 0.00 | 10 | 1008.3 |
| 20260901195404 | 83 | 236 | 5.0 | 15.0 | 0.00 | 0.00 | 0.00 | 10 | 1008.3 |
| 20260901195306 | 83 | 229 | 6.0 | 15.0 | 0.00 | 0.00 | 0.00 | 10 | 1008.3 |
| 20260901195204 | 83 | 231 | 7.0 | 15.0 | 0.00 | 0.00 | 0.00 | 10 | 1008.4 |
| 20260901195105 | 83 | 234 | 8.0 | 15.0 | 0.00 | 0.00 | 0.00 | 10 | 1008.3 |
| 20260901195004 | 83 | 232 | 7.0 | 16.0 | 0.00 | 0.00 | 0.00 | 10 | 1008.4 |
| 20260901194805 | 83 | 228 | 9.0 | 16.0 | 0.00 | 0.00 | 0.00 | 10 | 1008.4 |
| 20260901194704 | 83 | 226 | 6.0 | 16.0 | 0.00 | 0.00 | 0.00 | 10 | 1008.4 |
| 20260901194605 | 83 | 226 | 5.0 | 16.0 | 0.00 | 0.00 | 0.00 | 10 | 1008.5 |
| 20260901194504 | 83 | 229 | 5.0 | 16.0 | 0.00 | 0.00 | 0.00 | 10 | 1008.4 |
| 20260901194405 | 83 | 227 | 5.0 | 16.0 | 0.00 | 0.00 | 0.00 | 10 | 1008.5 |
| 20260901194304 | 83 | 228 | 2.0 | 16.0 | 0.00 | 0.00 | 0.00 | 10 | 1008.5 |
| 20260901194204 | 83 | 227 | 7.0 | 16.0 | 0.00 | 0.00 | 0.00 | 10 | 1008.5 |
| 20260901194105 | 83 | 228 | 6.0 | 16.0 | 0.00 | 0.00 | 0.00 | 10 | 1008.5 |
| 20260901194004 | 83 | 229 | 11.0 | 16.0 | 0.00 | 0.00 | 0.00 | 10 | 1008.6 |
| 20260901193905 | 83 | 235 | 8.0 | 15.0 | 0.00 | 0.00 | 0.00 | 10 | 1008.5 |
| 20260901193804 | 83 | 233 | 9.0 | 15.0 | 0.00 | 0.00 | 0.00 | 10 | 1008.5 |
| 20260901193705 | 83 | 226 | 7.0 | 14.0 | 0.00 | 0.00 | 0.00 | 10 | 1008.5 |